| time (UTC) | temp F | wind direction | speed MPH | gust MPH | rain 1hr in | rain 24hr in | rain mn in | humidity % | barometer mb |
| 20260502233500 | 76 | 276 | 2.0 | 2.0 | 0.00 | 0.00 | 0.00 | 99 | 1008.2 |
| 20260502233400 | 76 | 276 | 2.0 | 0.0 | 0.00 | 0.00 | 0.00 | 99 | 1008.2 |
| 20260502233300 | 76 | 276 | 2.0 | 3.0 | 0.00 | 0.00 | 0.00 | 99 | 1008.2 |
| 20260502233200 | 76 | 276 | 3.0 | 2.0 | 0.00 | 0.00 | 0.00 | 99 | 1008.2 |
| 20260502233102 | 76 | 272 | 2.0 | 2.0 | 0.00 | 0.00 | 0.00 | 99 | 1008.2 |
| 20260502233000 | 76 | 272 | 2.0 | 3.0 | 0.00 | 0.00 | 0.00 | 99 | 1008.2 |
| 20260502232900 | 76 | 271 | 3.0 | 2.0 | 0.00 | 0.00 | 0.00 | 99 | 1008.2 |
| 20260502232800 | 76 | 259 | 2.0 | 2.0 | 0.00 | 0.00 | 0.00 | 99 | 1008.2 |
| 20260502232700 | 76 | 251 | 2.0 | 1.0 | 0.00 | 0.00 | 0.00 | 99 | 1008.2 |
| 20260502232600 | 76 | 251 | 1.0 | 0.0 | 0.00 | 0.00 | 0.00 | 99 | 1008.2 |
| 20260502232500 | 75 | 251 | 0.0 | 0.0 | 0.00 | 0.00 | 0.00 | 99 | 1008.2 |
| 20260502232400 | 75 | 251 | 0.0 | 0.0 | 0.00 | 0.00 | 0.00 | 99 | 1008.1 |
| 20260502232300 | 75 | 251 | 0.0 | 0.0 | 0.00 | 0.00 | 0.00 | 99 | 1008.1 |
| 20260502232202 | 75 | 251 | 0.0 | 0.0 | 0.00 | 0.00 | 0.00 | 99 | 1008.1 |
| 20260502232102 | 75 | 251 | 0.0 | 0.0 | 0.00 | 0.00 | 0.00 | 99 | 1008.1 |
| 20260502232000 | 75 | 251 | 0.0 | 0.0 | 0.00 | 0.00 | 0.00 | 99 | 1008.1 |
| 20260502231900 | 75 | 251 | 0.0 | 0.0 | 0.00 | 0.00 | 0.00 | 99 | 1008.1 |
| 20260502231800 | 75 | 251 | 0.0 | 0.0 | 0.00 | 0.00 | 0.00 | 99 | 1008.1 |
| 20260502231700 | 75 | 251 | 0.0 | 0.0 | 0.00 | 0.00 | 0.00 | 99 | 1008.1 |
| 20260502231607 | 75 | 251 | 0.0 | 0.0 | 0.00 | 0.00 | 0.00 | 99 | 1008.1 |
| 20260502231500 | 75 | 251 | 0.0 | 0.0 | 0.00 | 0.00 | 0.00 | 99 | 1008.1 |
| 20260502231400 | 75 | 251 | 0.0 | 0.0 | 0.00 | 0.00 | 0.00 | 99 | 1008.1 |
| 20260502231300 | 75 | 251 | 0.0 | 0.0 | 0.00 | 0.00 | 0.00 | 99 | 1008.0 |
| 20260502231200 | 75 | 251 | 0.0 | 0.0 | 0.00 | 0.00 | 0.00 | 99 | 1008.0 |
| 20260502231102 | 75 | 251 | 0.0 | 0.0 | 0.00 | 0.00 | 0.00 | 99 | 1008.0 |
| 20260502231000 | 75 | 251 | 0.0 | 0.0 | 0.00 | 0.00 | 0.00 | 99 | 1008.0 |
| 20260502230900 | 75 | 251 | 0.0 | 0.0 | 0.00 | 0.00 | 0.00 | 99 | 1008.0 |
| 20260502230800 | 75 | 251 | 0.0 | 0.0 | 0.00 | 0.00 | 0.00 | 99 | 1008.0 |
| 20260502230700 | 75 | 251 | 0.0 | 0.0 | 0.00 | 0.00 | 0.00 | 99 | 1008.0 |
| 20260502230600 | 75 | 251 | 0.0 | 0.0 | 0.00 | 0.00 | 0.00 | 99 | 1007.9 |
| 20260502230500 | 75 | 251 | 0.0 | 0.0 | 0.00 | 0.00 | 0.00 | 99 | 1007.9 |
| 20260502230400 | 75 | 251 | 0.0 | 0.0 | 0.00 | 0.00 | 0.00 | 99 | 1007.9 |
| 20260502230300 | 75 | 251 | 0.0 | 0.0 | 0.00 | 0.00 | 0.00 | 99 | 1007.9 |
| 20260502230200 | 75 | 251 | 0.0 | 0.0 | 0.00 | 0.00 | 0.00 | 99 | 1007.9 |
| 20260502230002 | 75 | 251 | 0.0 | 0.0 | 0.00 | 0.00 | 0.00 | 99 | 1007.9 |
| 20260502225902 | 75 | 251 | 0.0 | 0.0 | 0.00 | 0.00 | 0.00 | 99 | 1007.9 |
| 20260502225800 | 75 | 251 | 0.0 | 0.0 | 0.00 | 0.00 | 0.00 | 99 | 1007.9 |
| 20260502225700 | 75 | 251 | 0.0 | 0.0 | 0.00 | 0.00 | 0.00 | 99 | 1007.9 |
| 20260502225600 | 75 | 251 | 0.0 | 0.0 | 0.00 | 0.00 | 0.00 | 99 | 1007.8 |
| 20260502225500 | 75 | 251 | 0.0 | 0.0 | 0.00 | 0.00 | 0.00 | 99 | 1007.8 |
| 20260502225400 | 75 | 251 | 0.0 | 1.0 | 0.00 | 0.00 | 0.00 | 99 | 1007.8 |
| 20260502225300 | 75 | 251 | 0.0 | 0.0 | 0.00 | 0.00 | 0.00 | 99 | 1007.8 |
| 20260502225200 | 75 | 251 | 0.0 | 0.0 | 0.00 | 0.00 | 0.00 | 99 | 1007.8 |
| 20260502225100 | 75 | 251 | 0.0 | 0.0 | 0.00 | 0.00 | 0.00 | 99 | 1007.8 |
| 20260502225000 | 75 | 251 | 0.0 | 0.0 | 0.00 | 0.00 | 0.00 | 99 | 1007.8 |
| 20260502224900 | 75 | 251 | 0.0 | 0.0 | 0.00 | 0.00 | 0.00 | 99 | 1007.8 |
| 20260502224800 | 75 | 251 | 0.0 | 0.0 | 0.00 | 0.00 | 0.00 | 99 | 1007.8 |
| 20260502224700 | 75 | 251 | 0.0 | 0.0 | 0.00 | 0.00 | 0.00 | 99 | 1007.8 |
| 20260502224602 | 75 | 251 | 0.0 | 0.0 | 0.00 | 0.00 | 0.00 | 99 | 1007.8 |
| 20260502224500 | 75 | 251 | 0.0 | 0.0 | 0.00 | 0.00 | 0.00 | 99 | 1007.8 |
| 20260502224400 | 75 | 251 | 0.0 | 0.0 | 0.00 | 0.00 | 0.00 | 99 | 1007.8 |
| 20260502224300 | 75 | 251 | 0.0 | 0.0 | 0.00 | 0.00 | 0.00 | 99 | 1007.8 |
| 20260502224200 | 75 | 251 | 0.0 | 1.0 | 0.00 | 0.00 | 0.00 | 99 | 1007.8 |
| 20260502224100 | 75 | 251 | 1.0 | 2.0 | 0.00 | 0.00 | 0.00 | 99 | 1007.8 |
| 20260502224000 | 75 | 251 | 2.0 | 1.0 | 0.00 | 0.00 | 0.00 | 99 | 1007.8 |
| 20260502223900 | 75 | 251 | 1.0 | 1.0 | 0.00 | 0.00 | 0.00 | 99 | 1007.8 |
| 20260502223800 | 75 | 251 | 1.0 | 1.0 | 0.00 | 0.00 | 0.00 | 99 | 1007.8 |
| 20260502223700 | 75 | 251 | 1.0 | 2.0 | 0.00 | 0.00 | 0.00 | 99 | 1007.8 |
| 20260502223600 | 75 | 251 | 2.0 | 0.0 | 0.00 | 0.00 | 0.00 | 99 | 1007.8 |
| 20260502223500 | 75 | 251 | 0.0 | 0.0 | 0.00 | 0.00 | 0.00 | 99 | 1007.8 |
| 20260502223258 | 75 | 256 | 3.0 | 2.0 | 0.00 | 0.00 | 0.00 | 99 | 1007.6 |
| 20260502223158 | 75 | 249 | 2.0 | 3.0 | 0.00 | 0.00 | 0.00 | 99 | 1007.6 |
| 20260502223058 | 75 | 249 | 3.0 | 3.0 | 0.00 | 0.00 | 0.00 | 99 | 1007.6 |
| 20260502222958 | 75 | 249 | 3.0 | 3.0 | 0.00 | 0.00 | 0.00 | 99 | 1007.6 |
| 20260502222900 | 75 | 249 | 3.0 | 3.0 | 0.00 | 0.00 | 0.00 | 99 | 1007.5 |
| 20260502222758 | 75 | 254 | 2.0 | 3.0 | 0.00 | 0.00 | 0.00 | 99 | 1007.5 |
| 20260502222658 | 75 | 255 | 3.0 | 3.0 | 0.00 | 0.00 | 0.00 | 99 | 1007.5 |
| 20260502222558 | 75 | 254 | 3.0 | 3.0 | 0.00 | 0.00 | 0.00 | 99 | 1007.5 |
| 20260502222458 | 75 | 255 | 3.0 | 3.0 | 0.00 | 0.00 | 0.00 | 99 | 1007.5 |
| 20260502222403 | 75 | 255 | 3.0 | 2.0 | 0.00 | 0.00 | 0.00 | 99 | 1007.4 |
| 20260502222305 | 75 | 255 | 2.0 | 2.0 | 0.00 | 0.00 | 0.00 | 99 | 1007.4 |
| 20260502222158 | 75 | 255 | 2.0 | 2.0 | 0.00 | 0.00 | 0.00 | 99 | 1007.4 |
| 20260502222058 | 75 | 255 | 2.0 | 2.0 | 0.00 | 0.00 | 0.00 | 99 | 1007.4 |
| 20260502222000 | 75 | 255 | 2.0 | 2.0 | 0.00 | 0.00 | 0.00 | 99 | 1007.4 |
| 20260502221858 | 75 | 267 | 2.0 | 3.0 | 0.00 | 0.00 | 0.00 | 99 | 1007.3 |
| 20260502221758 | 75 | 267 | 3.0 | 3.0 | 0.00 | 0.00 | 0.00 | 99 | 1007.3 |
| 20260502221658 | 75 | 260 | 3.0 | 3.0 | 0.00 | 0.00 | 0.00 | 99 | 1007.3 |
| 20260502221604 | 75 | 260 | 3.0 | 3.0 | 0.00 | 0.00 | 0.00 | 99 | 1007.3 |
| 20260502221458 | 75 | 278 | 3.0 | 4.0 | 0.00 | 0.00 | 0.00 | 99 | 1007.3 |
| 20260502221358 | 75 | 258 | 4.0 | 4.0 | 0.00 | 0.00 | 0.00 | 99 | 1007.2 |
| 20260502221258 | 75 | 263 | 4.0 | 3.0 | 0.00 | 0.00 | 0.00 | 99 | 1007.2 |
| 20260502221158 | 75 | 262 | 3.0 | 3.0 | 0.00 | 0.00 | 0.00 | 99 | 1007.2 |
| 20260502221058 | 75 | 268 | 3.0 | 3.0 | 0.00 | 0.00 | 0.00 | 99 | 1007.2 |
| 20260502220958 | 75 | 261 | 3.0 | 3.0 | 0.00 | 0.00 | 0.00 | 99 | 1007.2 |
| 20260502220858 | 75 | 260 | 3.0 | 4.0 | 0.00 | 0.00 | 0.00 | 99 | 1007.1 |
| 20260502220758 | 75 | 262 | 2.0 | 3.0 | 0.00 | 0.00 | 0.00 | 99 | 1007.1 |
| 20260502220658 | 75 | 261 | 3.0 | 3.0 | 0.00 | 0.00 | 0.00 | 99 | 1007.1 |
| 20260502220558 | 75 | 255 | 3.0 | 4.0 | 0.00 | 0.00 | 0.00 | 99 | 1007.1 |
| 20260502220458 | 75 | 258 | 4.0 | 4.0 | 0.00 | 0.00 | 0.00 | 99 | 1007.0 |
| 20260502220358 | 75 | 255 | 4.0 | 4.0 | 0.00 | 0.00 | 0.00 | 99 | 1007.0 |
| 20260502220258 | 76 | 256 | 4.0 | 3.0 | 0.00 | 0.00 | 0.00 | 99 | 1007.0 |
| 20260502220200 | 76 | 260 | 3.0 | 4.0 | 0.00 | 0.00 | 0.00 | 99 | 1007.0 |
| 20260502220104 | 76 | 252 | 4.0 | 3.0 | 0.00 | 0.00 | 0.00 | 99 | 1007.0 |
| 20260502215958 | 76 | 254 | 3.0 | 4.0 | 0.00 | 0.00 | 0.00 | 99 | 1006.9 |
| 20260502215900 | 76 | 259 | 4.0 | 4.0 | 0.00 | 0.00 | 0.00 | 99 | 1006.9 |
| 20260502215758 | 76 | 276 | 5.0 | 4.0 | 0.00 | 0.00 | 0.00 | 99 | 1006.9 |
| 20260502215658 | 76 | 264 | 4.0 | 4.0 | 0.00 | 0.00 | 0.00 | 99 | 1006.9 |
| 20260502215558 | 76 | 255 | 4.0 | 4.0 | 0.00 | 0.00 | 0.00 | 99 | 1006.9 |
| 20260502215458 | 76 | 261 | 4.0 | 4.0 | 0.00 | 0.00 | 0.00 | 99 | 1006.8 |
| 20260502215358 | 76 | 264 | 4.0 | 5.0 | 0.00 | 0.00 | 0.00 | 99 | 1006.8 |
| 20260502215258 | 76 | 272 | 5.0 | 5.0 | 0.00 | 0.00 | 0.00 | 99 | 1006.8 |
| 20260502215158 | 76 | 272 | 5.0 | 5.0 | 0.00 | 0.00 | 0.00 | 99 | 1006.8 |
| 20260502215058 | 76 | 268 | 5.0 | 4.0 | 0.00 | 0.00 | 0.00 | 99 | 1006.8 |
| 20260502214958 | 76 | 259 | 4.0 | 4.0 | 0.00 | 0.00 | 0.00 | 99 | 1006.8 |
| 20260502214900 | 76 | 260 | 4.0 | 3.0 | 0.00 | 0.00 | 0.00 | 99 | 1006.8 |
| 20260502214758 | 76 | 265 | 3.0 | 3.0 | 0.00 | 0.00 | 0.00 | 99 | 1006.8 |
| 20260502214658 | 76 | 269 | 3.0 | 3.0 | 0.00 | 0.00 | 0.00 | 99 | 1006.8 |
| 20260502214604 | 76 | 269 | 3.0 | 4.0 | 0.00 | 0.00 | 0.00 | 99 | 1006.8 |
| 20260502214458 | 76 | 269 | 4.0 | 5.0 | 0.00 | 0.00 | 0.00 | 99 | 1006.8 |
| 20260502214358 | 76 | 275 | 5.0 | 3.0 | 0.00 | 0.00 | 0.00 | 99 | 1006.8 |
| 20260502214258 | 76 | 275 | 3.0 | 3.0 | 0.00 | 0.00 | 0.00 | 99 | 1006.8 |
| 20260502214158 | 76 | 275 | 3.0 | 3.0 | 0.00 | 0.00 | 0.00 | 99 | 1006.8 |
| 20260502214104 | 76 | 275 | 3.0 | 3.0 | 0.00 | 0.00 | 0.00 | 99 | 1006.8 |
| 20260502213958 | 76 | 275 | 3.0 | 3.0 | 0.00 | 0.00 | 0.00 | 99 | 1006.8 |
| 20260502213858 | 76 | 291 | 3.0 | 2.0 | 0.00 | 0.00 | 0.00 | 99 | 1006.8 |
| 20260502213800 | 76 | 291 | 4.0 | 4.0 | 0.00 | 0.00 | 0.00 | 99 | 1006.8 |
| 20260502213658 | 76 | 291 | 4.0 | 4.0 | 0.00 | 0.00 | 0.00 | 99 | 1006.8 |
| 20260502213558 | 76 | 281 | 4.0 | 3.0 | 0.00 | 0.00 | 0.00 | 99 | 1006.8 |
| 20260502213458 | 76 | 284 | 3.0 | 2.0 | 0.00 | 0.00 | 0.00 | 99 | 1006.8 |
| 20260502213358 | 76 | 294 | 2.0 | 1.0 | 0.00 | 0.00 | 0.00 | 99 | 1006.8 |
| 20260502213258 | 76 | 295 | 1.0 | 0.0 | 0.00 | 0.00 | 0.00 | 99 | 1006.8 |
| 20260502213201 | 76 | 295 | 0.0 | 1.0 | 0.00 | 0.00 | 0.00 | 99 | 1006.8 |
| 20260502213103 | 76 | 295 | 1.0 | 1.0 | 0.00 | 0.00 | 0.00 | 99 | 1006.7 |
| 20260502213050 | 76 | 295 | 1.0 | 1.0 | 0.00 | 0.00 | 0.00 | 99 | 1006.7 |
| 20260502212908 | 76 | 295 | 1.0 | 2.0 | 0.00 | 0.00 | 0.00 | 99 | 1006.7 |
| 20260502212758 | 76 | 295 | 1.0 | 3.0 | 0.00 | 0.00 | 0.00 | 99 | 1006.7 |
| 20260502212708 | 76 | 295 | 2.0 | 3.0 | 0.00 | 0.00 | 0.00 | 99 | 1006.7 |
| 20260502211957 | 76 | 287 | 2.0 | 2.0 | 0.00 | 0.00 | 0.00 | 99 | 1006.6 |
| 20260502211857 | 76 | 287 | 2.0 | 2.0 | 0.00 | 0.00 | 0.00 | 99 | 1006.6 |
| 20260502211757 | 76 | 288 | 2.0 | 1.0 | 0.00 | 0.00 | 0.00 | 99 | 1006.6 |
| 20260502211657 | 76 | 288 | 1.0 | 1.0 | 0.00 | 0.00 | 0.00 | 99 | 1006.6 |
| 20260502211558 | 76 | 288 | 1.0 | 1.0 | 0.00 | 0.00 | 0.00 | 99 | 1006.6 |
| 20260502211458 | 76 | 288 | 1.0 | 2.0 | 0.00 | 0.00 | 0.00 | 99 | 1006.6 |
| 20260502211357 | 76 | 288 | 2.0 | 2.0 | 0.00 | 0.00 | 0.00 | 99 | 1006.6 |
| 20260502211257 | 76 | 288 | 2.0 | 2.0 | 0.00 | 0.00 | 0.00 | 99 | 1006.6 |
| 20260502211157 | 76 | 288 | 2.0 | 2.0 | 0.00 | 0.00 | 0.00 | 99 | 1006.6 |
| 20260502211059 | 76 | 288 | 2.0 | 2.0 | 0.00 | 0.00 | 0.00 | 99 | 1006.5 |
| 20260502210959 | 76 | 282 | 2.0 | 2.0 | 0.00 | 0.00 | 0.00 | 99 | 1006.5 |
| 20260502210858 | 76 | 277 | 2.0 | 2.0 | 0.00 | 0.00 | 0.00 | 99 | 1006.5 |
| 20260502210757 | 76 | 277 | 2.0 | 3.0 | 0.00 | 0.00 | 0.00 | 99 | 1006.5 |
| 20260502210659 | 76 | 276 | 3.0 | 2.0 | 0.00 | 0.00 | 0.00 | 99 | 1006.5 |
| 20260502210558 | 76 | 276 | 2.0 | 2.0 | 0.00 | 0.00 | 0.00 | 99 | 1006.5 |
| 20260502210457 | 76 | 276 | 2.0 | 2.0 | 0.00 | 0.00 | 0.00 | 99 | 1006.5 |
| 20260502210357 | 76 | 276 | 2.0 | 3.0 | 0.00 | 0.00 | 0.00 | 99 | 1006.5 |
| 20260502210257 | 76 | 276 | 3.0 | 3.0 | 0.00 | 0.00 | 0.00 | 99 | 1006.5 |
| 20260502210157 | 77 | 276 | 3.0 | 3.0 | 0.00 | 0.00 | 0.00 | 99 | 1006.5 |
| 20260502210057 | 77 | 276 | 3.0 | 3.0 | 0.00 | 0.00 | 0.00 | 99 | 1006.4 |
| 20260502205957 | 77 | 276 | 3.0 | 2.0 | 0.00 | 0.00 | 0.00 | 99 | 1006.4 |
| 20260502205857 | 77 | 276 | 2.0 | 1.0 | 0.00 | 0.00 | 0.00 | 99 | 1006.4 |
| 20260502205757 | 77 | 277 | 2.0 | 1.0 | 0.00 | 0.00 | 0.00 | 99 | 1006.4 |
| 20260502205657 | 77 | 277 | 1.0 | 1.0 | 0.00 | 0.00 | 0.00 | 99 | 1006.4 |
| 20260502205557 | 77 | 277 | 1.0 | 0.0 | 0.00 | 0.00 | 0.00 | 99 | 1006.4 |
| 20260502205457 | 77 | 277 | 0.0 | 1.0 | 0.00 | 0.00 | 0.00 | 99 | 1006.4 |
| 20260502205357 | 77 | 277 | 1.0 | 1.0 | 0.00 | 0.00 | 0.00 | 99 | 1006.4 |
| 20260502205257 | 77 | 277 | 1.0 | 1.0 | 0.00 | 0.00 | 0.00 | 99 | 1006.4 |
| 20260502205157 | 77 | 277 | 1.0 | 2.0 | 0.00 | 0.00 | 0.00 | 99 | 1006.4 |
| 20260502205057 | 77 | 277 | 2.0 | 2.0 | 0.00 | 0.00 | 0.00 | 99 | 1006.5 |
| 20260502204959 | 77 | 277 | 2.0 | 1.0 | 0.00 | 0.00 | 0.00 | 99 | 1006.5 |
| 20260502204857 | 77 | 277 | 1.0 | 0.0 | 0.00 | 0.00 | 0.00 | 99 | 1006.5 |
| 20260502204757 | 77 | 277 | 0.0 | 0.0 | 0.00 | 0.00 | 0.00 | 99 | 1006.5 |
| 20260502204657 | 77 | 277 | 0.0 | 0.0 | 0.00 | 0.00 | 0.00 | 99 | 1006.5 |
| 20260502204603 | 77 | 277 | 0.0 | 0.0 | 0.00 | 0.00 | 0.00 | 99 | 1006.5 |
| 20260502204457 | 77 | 277 | 0.0 | 0.0 | 0.00 | 0.00 | 0.00 | 99 | 1006.5 |
| 20260502204357 | 77 | 277 | 0.0 | 0.0 | 0.00 | 0.00 | 0.00 | 99 | 1006.5 |
| 20260502204257 | 77 | 277 | 0.0 | 0.0 | 0.00 | 0.00 | 0.00 | 99 | 1006.5 |
| 20260502204157 | 77 | 277 | 0.0 | 0.0 | 0.00 | 0.00 | 0.00 | 99 | 1006.5 |
| 20260502204057 | 77 | 277 | 0.0 | 0.0 | 0.00 | 0.00 | 0.00 | 99 | 1006.5 |
| 20260502203957 | 77 | 277 | 0.0 | 0.0 | 0.00 | 0.00 | 0.00 | 99 | 1006.5 |
| 20260502203857 | 77 | 277 | 0.0 | 0.0 | 0.00 | 0.00 | 0.00 | 99 | 1006.5 |
| 20260502203801 | 76 | 277 | 0.0 | 0.0 | 0.00 | 0.00 | 0.00 | 99 | 1006.5 |
| 20260502203657 | 76 | 277 | 0.0 | 0.0 | 0.00 | 0.00 | 0.00 | 99 | 1006.4 |
| 20260502203557 | 76 | 277 | 0.0 | 0.0 | 0.00 | 0.00 | 0.00 | 99 | 1006.4 |
| 20260502203457 | 76 | 277 | 0.0 | 0.0 | 0.00 | 0.00 | 0.00 | 99 | 1006.4 |
| 20260502203357 | 76 | 277 | 0.0 | 0.0 | 0.00 | 0.00 | 0.00 | 99 | 1006.4 |
| 20260502203257 | 76 | 277 | 0.0 | 0.0 | 0.00 | 0.00 | 0.00 | 99 | 1006.4 |
| 20260502203157 | 76 | 277 | 0.0 | 0.0 | 0.00 | 0.00 | 0.00 | 99 | 1006.5 |
| 20260502203103 | 76 | 277 | 0.0 | 0.0 | 0.00 | 0.00 | 0.00 | 99 | 1006.5 |
| 20260502202957 | 76 | 277 | 0.0 | 0.0 | 0.00 | 0.00 | 0.00 | 99 | 1006.5 |
| 20260502202857 | 76 | 277 | 0.0 | 0.0 | 0.00 | 0.00 | 0.00 | 99 | 1006.5 |
| 20260502202757 | 76 | 277 | 0.0 | 0.0 | 0.00 | 0.00 | 0.00 | 99 | 1006.5 |
| 20260502202659 | 76 | 277 | 0.0 | 0.0 | 0.00 | 0.00 | 0.00 | 99 | 1006.5 |
| 20260502202557 | 76 | 277 | 0.0 | 0.0 | 0.00 | 0.00 | 0.00 | 99 | 1006.5 |
| 20260502202457 | 76 | 277 | 0.0 | 0.0 | 0.00 | 0.00 | 0.00 | 99 | 1006.6 |
| 20260502202357 | 76 | 277 | 0.0 | 0.0 | 0.00 | 0.00 | 0.00 | 99 | 1006.6 |
| 20260502202257 | 76 | 277 | 0.0 | 0.0 | 0.00 | 0.00 | 0.00 | 99 | 1006.6 |
| 20260502202157 | 76 | 277 | 0.0 | 0.0 | 0.00 | 0.00 | 0.00 | 99 | 1006.6 |
| 20260502202057 | 76 | 277 | 0.0 | 0.0 | 0.00 | 0.00 | 0.00 | 99 | 1006.6 |
| 20260502201957 | 76 | 275 | 0.0 | 0.0 | 0.00 | 0.00 | 0.00 | 99 | 1006.7 |
| 20260502201857 | 76 | 275 | 0.0 | 0.0 | 0.00 | 0.00 | 0.00 | 99 | 1006.7 |
| 20260502201757 | 77 | 275 | 0.0 | 0.0 | 0.00 | 0.00 | 0.00 | 99 | 1006.7 |
| 20260502201657 | 77 | 275 | 0.0 | 0.0 | 0.00 | 0.00 | 0.00 | 99 | 1006.7 |
| 20260502201603 | 77 | 275 | 0.0 | 0.0 | 0.00 | 0.00 | 0.00 | 99 | 1006.7 |
| 20260502201457 | 77 | 275 | 0.0 | 0.0 | 0.00 | 0.00 | 0.00 | 99 | 1006.7 |
| 20260502201357 | 77 | 275 | 0.0 | 0.0 | 0.00 | 0.00 | 0.00 | 99 | 1006.7 |
| 20260502201257 | 77 | 275 | 0.0 | 0.0 | 0.00 | 0.00 | 0.00 | 99 | 1006.8 |
| 20260502201157 | 77 | 275 | 0.0 | 0.0 | 0.00 | 0.00 | 0.00 | 99 | 1006.8 |
| 20260502201057 | 77 | 275 | 0.0 | 0.0 | 0.00 | 0.00 | 0.00 | 99 | 1006.8 |
| 20260502200959 | 77 | 275 | 0.0 | 0.0 | 0.00 | 0.00 | 0.00 | 99 | 1006.8 |
| 20260502200859 | 77 | 275 | 0.0 | 0.0 | 0.00 | 0.00 | 0.00 | 99 | 1006.8 |
| 20260502200759 | 77 | 275 | 0.0 | 0.0 | 0.00 | 0.00 | 0.00 | 99 | 1006.8 |
| 20260502200657 | 77 | 275 | 0.0 | 0.0 | 0.00 | 0.00 | 0.00 | 99 | 1006.8 |
| 20260502200557 | 77 | 275 | 0.0 | 0.0 | 0.00 | 0.00 | 0.00 | 99 | 1006.8 |
| 20260502200457 | 77 | 275 | 0.0 | 0.0 | 0.00 | 0.00 | 0.00 | 99 | 1006.8 |
| 20260502200357 | 77 | 275 | 0.0 | 0.0 | 0.00 | 0.00 | 0.00 | 99 | 1006.9 |
| 20260502200257 | 77 | 275 | 0.0 | 0.0 | 0.00 | 0.00 | 0.00 | 99 | 1006.9 |
| 20260502200159 | 77 | 275 | 0.0 | 0.0 | 0.00 | 0.00 | 0.00 | 99 | 1006.9 |
| 20260502200101 | 77 | 275 | 0.0 | 0.0 | 0.00 | 0.00 | 0.00 | 99 | 1006.9 |
| 20260502195957 | 77 | 275 | 0.0 | 0.0 | 0.00 | 0.00 | 0.00 | 99 | 1006.9 |
| 20260502195859 | 77 | 275 | 0.0 | 1.0 | 0.00 | 0.00 | 0.00 | 99 | 1006.9 |
| 20260502195757 | 77 | 275 | 0.0 | 0.0 | 0.00 | 0.00 | 0.00 | 99 | 1006.9 |
| 20260502195657 | 77 | 275 | 0.0 | 0.0 | 0.00 | 0.00 | 0.00 | 99 | 1007.0 |
| 20260502195557 | 77 | 275 | 0.0 | 0.0 | 0.00 | 0.00 | 0.00 | 99 | 1007.0 |
| 20260502195457 | 77 | 275 | 0.0 | 1.0 | 0.00 | 0.00 | 0.00 | 99 | 1007.0 |
| 20260502195357 | 77 | 275 | 1.0 | 1.0 | 0.00 | 0.00 | 0.00 | 99 | 1007.0 |
| 20260502195257 | 77 | 275 | 1.0 | 1.0 | 0.00 | 0.00 | 0.00 | 99 | 1007.0 |
| 20260502195157 | 77 | 275 | 1.0 | 2.0 | 0.00 | 0.00 | 0.00 | 99 | 1007.0 |
| 20260502195057 | 77 | 275 | 2.0 | 1.0 | 0.00 | 0.00 | 0.00 | 99 | 1007.1 |
| 20260502194957 | 77 | 275 | 1.0 | 1.0 | 0.00 | 0.00 | 0.00 | 99 | 1007.1 |
| 20260502194857 | 77 | 275 | 1.0 | 1.0 | 0.00 | 0.00 | 0.00 | 99 | 1007.1 |
| 20260502194757 | 77 | 275 | 1.0 | 1.0 | 0.00 | 0.00 | 0.00 | 99 | 1007.1 |
| 20260502194657 | 77 | 275 | 1.0 | 1.0 | 0.00 | 0.00 | 0.00 | 99 | 1007.1 |
| 20260502194557 | 77 | 275 | 1.0 | 1.0 | 0.00 | 0.00 | 0.00 | 99 | 1007.1 |
| 20260502194457 | 77 | 275 | 1.0 | 1.0 | 0.00 | 0.00 | 0.00 | 99 | 1007.1 |
| 20260502194357 | 77 | 275 | 1.0 | 1.0 | 0.00 | 0.00 | 0.00 | 99 | 1007.1 |
| 20260502194257 | 77 | 275 | 1.0 | 1.0 | 0.00 | 0.00 | 0.00 | 99 | 1007.1 |
| 20260502194157 | 77 | 275 | 1.0 | 2.0 | 0.00 | 0.00 | 0.00 | 99 | 1007.1 |
| 20260502194057 | 77 | 275 | 2.0 | 2.0 | 0.00 | 0.00 | 0.00 | 99 | 1007.1 |
| 20260502193957 | 77 | 275 | 2.0 | 2.0 | 0.00 | 0.00 | 0.00 | 99 | 1007.1 |
| 20260502193857 | 77 | 275 | 2.0 | 0.0 | 0.00 | 0.00 | 0.00 | 99 | 1007.2 |
| 20260502193757 | 77 | 275 | 1.0 | 0.0 | 0.00 | 0.00 | 0.00 | 99 | 1007.2 |
| 20260502193657 | 77 | 275 | 0.0 | 0.0 | 0.00 | 0.00 | 0.00 | 99 | 1007.2 |
| 20260502193557 | 77 | 275 | 0.0 | 0.0 | 0.00 | 0.00 | 0.00 | 99 | 1007.2 |
| 20260502193457 | 77 | 275 | 0.0 | 0.0 | 0.00 | 0.00 | 0.00 | 99 | 1007.2 |
| 20260502193357 | 77 | 275 | 0.0 | 0.0 | 0.00 | 0.00 | 0.00 | 99 | 1007.2 |
| 20260502193257 | 77 | 275 | 0.0 | 0.0 | 0.00 | 0.00 | 0.00 | 99 | 1007.3 |
| 20260502193157 | 77 | 275 | 0.0 | 0.0 | 0.00 | 0.00 | 0.00 | 99 | 1007.3 |
| 20260502193059 | 77 | 275 | 0.0 | 0.0 | 0.00 | 0.00 | 0.00 | 99 | 1007.3 |
| 20260502192957 | 77 | 275 | 0.0 | 0.0 | 0.00 | 0.00 | 0.00 | 99 | 1007.3 |
| 20260502192857 | 77 | 275 | 0.0 | 1.0 | 0.00 | 0.00 | 0.00 | 99 | 1007.3 |
| 20260502192757 | 77 | 275 | 0.0 | 0.0 | 0.00 | 0.00 | 0.00 | 99 | 1007.4 |
| 20260502192657 | 77 | 275 | 0.0 | 0.0 | 0.00 | 0.00 | 0.00 | 99 | 1007.4 |
| 20260502192557 | 77 | 275 | 0.0 | 0.0 | 0.00 | 0.00 | 0.00 | 99 | 1007.4 |
| 20260502192457 | 77 | 275 | 0.0 | 1.0 | 0.00 | 0.00 | 0.00 | 99 | 1007.4 |
| 20260502192357 | 77 | 275 | 1.0 | 1.0 | 0.00 | 0.00 | 0.00 | 99 | 1007.4 |
| 20260502192257 | 77 | 275 | 1.0 | 1.0 | 0.00 | 0.00 | 0.00 | 99 | 1007.4 |
| 20260502192157 | 77 | 275 | 1.0 | 1.0 | 0.00 | 0.00 | 0.00 | 99 | 1007.5 |
| 20260502192101 | 77 | 275 | 1.0 | 2.0 | 0.00 | 0.00 | 0.00 | 99 | 1007.5 |
| 20260502191957 | 77 | 275 | 2.0 | 1.0 | 0.00 | 0.00 | 0.00 | 99 | 1007.5 |
| 20260502191856 | 77 | 275 | 1.0 | 2.0 | 0.00 | 0.00 | 0.00 | 99 | 1007.5 |
| 20260502191757 | 77 | 275 | 1.0 | 2.0 | 0.00 | 0.00 | 0.00 | 99 | 1007.5 |
| 20260502191657 | 77 | 275 | 2.0 | 2.0 | 0.00 | 0.00 | 0.00 | 99 | 1007.6 |
| 20260502191601 | 77 | 275 | 2.0 | 2.0 | 0.00 | 0.00 | 0.00 | 99 | 1007.6 |
| 20260502191456 | 77 | 275 | 2.0 | 2.0 | 0.00 | 0.00 | 0.00 | 99 | 1007.6 |
| 20260502191356 | 77 | 275 | 2.0 | 2.0 | 0.00 | 0.00 | 0.00 | 99 | 1007.6 |
| 20260502191256 | 77 | 275 | 2.0 | 2.0 | 0.00 | 0.00 | 0.00 | 99 | 1007.6 |
| 20260502191157 | 77 | 275 | 2.0 | 3.0 | 0.00 | 0.00 | 0.00 | 99 | 1007.7 |
| 20260502191056 | 77 | 272 | 3.0 | 2.0 | 0.00 | 0.00 | 0.00 | 99 | 1007.7 |
| 20260502190957 | 77 | 264 | 2.0 | 2.0 | 0.00 | 0.00 | 0.00 | 99 | 1007.7 |
| 20260502190856 | 77 | 264 | 2.0 | 2.0 | 0.00 | 0.00 | 0.00 | 99 | 1007.7 |
| 20260502190757 | 77 | 263 | 2.0 | 2.0 | 0.00 | 0.00 | 0.00 | 99 | 1007.7 |
| 20260502190658 | 77 | 263 | 2.0 | 2.0 | 0.00 | 0.00 | 0.00 | 99 | 1007.8 |
| 20260502190557 | 77 | 263 | 2.0 | 2.0 | 0.00 | 0.00 | 0.00 | 99 | 1007.8 |
| 20260502190456 | 77 | 258 | 2.0 | 2.0 | 0.00 | 0.00 | 0.00 | 99 | 1007.8 |
| 20260502190356 | 77 | 253 | 2.0 | 2.0 | 0.00 | 0.00 | 0.00 | 99 | 1007.8 |
| 20260502190257 | 77 | 231 | 2.0 | 2.0 | 0.00 | 0.00 | 0.00 | 99 | 1007.8 |
| 20260502190157 | 77 | 231 | 2.0 | 1.0 | 0.00 | 0.00 | 0.00 | 99 | 1007.8 |
| 20260502190103 | 77 | 231 | 1.0 | 1.0 | 0.00 | 0.00 | 0.00 | 99 | 1007.8 |
| 20260502185956 | 77 | 231 | 1.0 | 2.0 | 0.00 | 0.00 | 0.00 | 99 | 1007.9 |
| 20260502185857 | 77 | 234 | 2.0 | 2.0 | 0.00 | 0.00 | 0.00 | 99 | 1007.9 |
| 20260502185756 | 77 | 234 | 1.0 | 2.0 | 0.00 | 0.00 | 0.00 | 99 | 1007.9 |
| 20260502185656 | 77 | 234 | 2.0 | 2.0 | 0.00 | 0.00 | 0.00 | 99 | 1007.9 |
| 20260502185556 | 77 | 234 | 2.0 | 2.0 | 0.00 | 0.00 | 0.00 | 99 | 1007.9 |
| 20260502185459 | 77 | 234 | 2.0 | 2.0 | 0.00 | 0.00 | 0.00 | 99 | 1007.9 |
| 20260502185356 | 77 | 234 | 2.0 | 2.0 | 0.00 | 0.00 | 0.00 | 99 | 1007.9 |
| 20260502185257 | 77 | 234 | 2.0 | 2.0 | 0.00 | 0.00 | 0.00 | 99 | 1007.9 |
| 20260502185156 | 77 | 234 | 2.0 | 2.0 | 0.00 | 0.00 | 0.00 | 99 | 1008.0 |
| 20260502185057 | 77 | 234 | 2.0 | 2.0 | 0.00 | 0.00 | 0.00 | 99 | 1008.0 |
| 20260502184956 | 77 | 234 | 2.0 | 3.0 | 0.00 | 0.00 | 0.00 | 99 | 1008.0 |
| 20260502184856 | 77 | 234 | 3.0 | 2.0 | 0.00 | 0.00 | 0.00 | 99 | 1008.0 |
| 20260502184756 | 77 | 234 | 2.0 | 3.0 | 0.00 | 0.00 | 0.00 | 99 | 1008.0 |
| 20260502184656 | 77 | 234 | 3.0 | 2.0 | 0.00 | 0.00 | 0.00 | 99 | 1008.0 |
| 20260502184556 | 77 | 239 | 2.0 | 2.0 | 0.00 | 0.00 | 0.00 | 99 | 1008.0 |
| 20260502184456 | 77 | 244 | 2.0 | 2.0 | 0.00 | 0.00 | 0.00 | 99 | 1008.0 |
| 20260502184356 | 77 | 265 | 2.0 | 2.0 | 0.00 | 0.00 | 0.00 | 99 | 1008.0 |
| 20260502184256 | 77 | 265 | 2.0 | 2.0 | 0.00 | 0.00 | 0.00 | 99 | 1008.0 |
| 20260502184158 | 77 | 265 | 2.0 | 2.0 | 0.00 | 0.00 | 0.00 | 99 | 1008.0 |
| 20260502184056 | 77 | 265 | 2.0 | 2.0 | 0.00 | 0.00 | 0.00 | 99 | 1008.0 |
| 20260502184002 | 77 | 265 | 2.0 | 2.0 | 0.00 | 0.00 | 0.00 | 99 | 1008.0 |
| 20260502183856 | 77 | 283 | 2.0 | 1.0 | 0.00 | 0.00 | 0.00 | 99 | 1008.0 |
| 20260502183756 | 77 | 283 | 2.0 | 2.0 | 0.00 | 0.00 | 0.00 | 99 | 1008.1 |
| 20260502183656 | 77 | 283 | 2.0 | 2.0 | 0.00 | 0.00 | 0.00 | 99 | 1008.1 |
| 20260502183556 | 77 | 284 | 2.0 | 2.0 | 0.00 | 0.00 | 0.00 | 99 | 1008.1 |
| 20260502183456 | 77 | 279 | 2.0 | 2.0 | 0.00 | 0.00 | 0.00 | 99 | 1008.1 |
| 20260502183400 | 77 | 258 | 2.0 | 2.0 | 0.00 | 0.00 | 0.00 | 99 | 1008.1 |
| 20260502183256 | 77 | 258 | 2.0 | 0.0 | 0.00 | 0.00 | 0.00 | 99 | 1008.1 |
| 20260502183156 | 77 | 258 | 0.0 | 0.0 | 0.00 | 0.00 | 0.00 | 99 | 1008.1 |
| 20260502183102 | 77 | 258 | 0.0 | 0.0 | 0.00 | 0.00 | 0.00 | 99 | 1008.1 |
| 20260502182956 | 77 | 258 | 0.0 | 0.0 | 0.00 | 0.00 | 0.00 | 99 | 1008.1 |
| 20260502182856 | 77 | 258 | 0.0 | 2.0 | 0.00 | 0.00 | 0.00 | 99 | 1008.1 |
| 20260502182756 | 77 | 258 | 0.0 | 0.0 | 0.00 | 0.00 | 0.00 | 99 | 1008.1 |
| 20260502182656 | 77 | 258 | 0.0 | 1.0 | 0.00 | 0.00 | 0.00 | 99 | 1008.1 |
| 20260502182556 | 77 | 258 | 1.0 | 2.0 | 0.00 | 0.00 | 0.00 | 99 | 1008.1 |
| 20260502182458 | 77 | 258 | 2.0 | 2.0 | 0.00 | 0.00 | 0.00 | 99 | 1008.1 |
| 20260502182356 | 77 | 258 | 2.0 | 2.0 | 0.00 | 0.00 | 0.00 | 99 | 1008.1 |
| 20260502182256 | 77 | 258 | 2.0 | 2.0 | 0.00 | 0.00 | 0.00 | 99 | 1008.1 |
| 20260502182158 | 77 | 258 | 2.0 | 2.0 | 0.00 | 0.00 | 0.00 | 99 | 1008.2 |
| 20260502182056 | 77 | 257 | 2.0 | 2.0 | 0.00 | 0.00 | 0.00 | 99 | 1008.2 |
| 20260502181958 | 77 | 257 | 2.0 | 2.0 | 0.00 | 0.00 | 0.00 | 99 | 1008.2 |
| 20260502181856 | 77 | 257 | 2.0 | 3.0 | 0.00 | 0.00 | 0.00 | 99 | 1008.2 |
| 20260502181756 | 77 | 257 | 2.0 | 2.0 | 0.00 | 0.00 | 0.00 | 99 | 1008.2 |
| 20260502181656 | 77 | 270 | 2.0 | 2.0 | 0.00 | 0.00 | 0.00 | 99 | 1008.2 |
| 20260502181602 | 77 | 270 | 2.0 | 2.0 | 0.00 | 0.00 | 0.00 | 99 | 1008.3 |
| 20260502181456 | 77 | 270 | 2.0 | 2.0 | 0.00 | 0.00 | 0.00 | 99 | 1008.3 |
| 20260502181356 | 77 | 273 | 2.0 | 2.0 | 0.00 | 0.00 | 0.00 | 99 | 1008.3 |
| 20260502181256 | 77 | 273 | 2.0 | 2.0 | 0.00 | 0.00 | 0.00 | 99 | 1008.3 |
| 20260502181157 | 77 | 275 | 2.0 | 2.0 | 0.00 | 0.00 | 0.00 | 99 | 1008.4 |
| 20260502181057 | 77 | 281 | 2.0 | 2.0 | 0.00 | 0.00 | 0.00 | 99 | 1008.4 |
| 20260502180956 | 77 | 288 | 2.0 | 2.0 | 0.00 | 0.00 | 0.00 | 99 | 1008.4 |
| 20260502180856 | 77 | 288 | 2.0 | 3.0 | 0.00 | 0.00 | 0.00 | 99 | 1008.4 |
| 20260502180756 | 77 | 288 | 3.0 | 4.0 | 0.00 | 0.00 | 0.00 | 99 | 1008.4 |
| 20260502180656 | 77 | 292 | 4.0 | 3.0 | 0.00 | 0.00 | 0.00 | 99 | 1008.4 |
| 20260502180556 | 77 | 297 | 3.0 | 3.0 | 0.00 | 0.00 | 0.00 | 99 | 1008.5 |
| 20260502180456 | 77 | 297 | 3.0 | 2.0 | 0.00 | 0.00 | 0.00 | 99 | 1008.5 |
| 20260502180356 | 77 | 286 | 2.0 | 3.0 | 0.00 | 0.00 | 0.00 | 99 | 1008.5 |
| 20260502180256 | 77 | 284 | 3.0 | 4.0 | 0.00 | 0.00 | 0.00 | 99 | 1008.5 |
| 20260502180158 | 77 | 282 | 4.0 | 4.0 | 0.00 | 0.00 | 0.00 | 99 | 1008.5 |
| 20260502170456 | 78 | 254 | 4.0 | 4.0 | 0.00 | 0.00 | 0.00 | 99 | 1009.2 |
| 20260502170356 | 78 | 251 | 4.0 | 4.0 | 0.00 | 0.00 | 0.00 | 99 | 1009.2 |
| 20260502170256 | 78 | 263 | 4.0 | 4.0 | 0.00 | 0.00 | 0.00 | 99 | 1009.2 |
| 20260502170156 | 78 | 265 | 4.0 | 5.0 | 0.00 | 0.00 | 0.00 | 99 | 1009.2 |
| 20260502164255 | 78 | 242 | 4.0 | 4.0 | 0.00 | 0.00 | 0.00 | 99 | 1009.3 |
| 20260502164156 | 78 | 236 | 4.0 | 4.0 | 0.00 | 0.00 | 0.00 | 99 | 1009.3 |
| 20260502164055 | 78 | 256 | 4.0 | 4.0 | 0.00 | 0.00 | 0.00 | 99 | 1009.3 |
| 20260502163955 | 78 | 259 | 4.0 | 3.0 | 0.00 | 0.00 | 0.00 | 99 | 1009.3 |
| 20260502163855 | 78 | 252 | 3.0 | 5.0 | 0.00 | 0.00 | 0.00 | 99 | 1009.3 |
| 20260502163755 | 78 | 248 | 3.0 | 3.0 | 0.00 | 0.00 | 0.00 | 99 | 1009.3 |
| 20260502163655 | 78 | 244 | 3.0 | 4.0 | 0.00 | 0.00 | 0.00 | 99 | 1009.3 |
| 20260502163555 | 78 | 241 | 4.0 | 4.0 | 0.00 | 0.00 | 0.00 | 99 | 1009.3 |
| 20260502163455 | 78 | 237 | 4.0 | 4.0 | 0.00 | 0.00 | 0.00 | 99 | 1009.3 |
| 20260502163358 | 78 | 247 | 4.0 | 4.0 | 0.00 | 0.00 | 0.00 | 99 | 1009.3 |
| 20260502163309 | 78 | 245 | 4.0 | 4.0 | 0.00 | 0.00 | 0.00 | 99 | 1009.3 |
| 20260502163157 | 78 | 253 | 4.0 | 4.0 | 0.00 | 0.00 | 0.00 | 99 | 1009.3 |
| 20260502163055 | 78 | 255 | 4.0 | 5.0 | 0.00 | 0.00 | 0.00 | 99 | 1009.3 |
| 20260502162955 | 78 | 244 | 5.0 | 5.0 | 0.00 | 0.00 | 0.00 | 99 | 1009.3 |
| 20260502162855 | 78 | 249 | 5.0 | 4.0 | 0.00 | 0.00 | 0.00 | 99 | 1009.3 |
| 20260502162755 | 78 | 259 | 5.0 | 5.0 | 0.00 | 0.00 | 0.00 | 99 | 1009.3 |
| 20260502162655 | 78 | 247 | 5.0 | 4.0 | 0.00 | 0.00 | 0.00 | 99 | 1009.3 |
| 20260502162555 | 78 | 258 | 4.0 | 5.0 | 0.00 | 0.00 | 0.00 | 99 | 1009.3 |
| 20260502162455 | 78 | 272 | 5.0 | 6.0 | 0.00 | 0.00 | 0.00 | 99 | 1009.3 |
| 20260502162355 | 78 | 277 | 6.0 | 5.0 | 0.00 | 0.00 | 0.00 | 99 | 1009.3 |
| 20260502162255 | 78 | 280 | 5.0 | 4.0 | 0.00 | 0.00 | 0.00 | 99 | 1009.3 |
| 20260502162157 | 78 | 287 | 4.0 | 5.0 | 0.00 | 0.00 | 0.00 | 99 | 1009.3 |
| 20260502162055 | 78 | 264 | 5.0 | 4.0 | 0.00 | 0.00 | 0.00 | 99 | 1009.3 |
| 20260502161955 | 78 | 285 | 4.0 | 4.0 | 0.00 | 0.00 | 0.00 | 99 | 1009.3 |
| 20260502161855 | 78 | 264 | 4.0 | 4.0 | 0.00 | 0.00 | 0.00 | 99 | 1009.3 |
| 20260502161755 | 78 | 272 | 5.0 | 5.0 | 0.00 | 0.00 | 0.00 | 99 | 1009.3 |
| 20260502161655 | 78 | 266 | 5.0 | 4.0 | 0.00 | 0.00 | 0.00 | 99 | 1009.3 |
| 20260502161605 | 78 | 271 | 4.0 | 4.0 | 0.00 | 0.00 | 0.00 | 99 | 1009.3 |
| 20260502161455 | 78 | 254 | 4.0 | 4.0 | 0.00 | 0.00 | 0.00 | 99 | 1009.3 |
| 20260502161355 | 78 | 277 | 4.0 | 4.0 | 0.00 | 0.00 | 0.00 | 99 | 1009.3 |
| 20260502161255 | 78 | 275 | 4.0 | 3.0 | 0.00 | 0.00 | 0.00 | 99 | 1009.3 |
| 20260502161155 | 78 | 263 | 3.0 | 4.0 | 0.00 | 0.00 | 0.00 | 99 | 1009.3 |
| 20260502161055 | 78 | 267 | 4.0 | 4.0 | 0.00 | 0.00 | 0.00 | 99 | 1009.3 |
| 20260502160955 | 78 | 263 | 4.0 | 5.0 | 0.00 | 0.00 | 0.00 | 99 | 1009.3 |
| 20260502160855 | 78 | 255 | 5.0 | 4.0 | 0.00 | 0.00 | 0.00 | 99 | 1009.3 |
| 20260502160757 | 78 | 272 | 4.0 | 4.0 | 0.00 | 0.00 | 0.00 | 99 | 1009.3 |
| 20260502160655 | 78 | 267 | 4.0 | 5.0 | 0.00 | 0.00 | 0.00 | 99 | 1009.3 |
| 20260502160555 | 78 | 253 | 5.0 | 5.0 | 0.00 | 0.00 | 0.00 | 99 | 1009.3 |
| 20260502160455 | 78 | 262 | 5.0 | 5.0 | 0.00 | 0.00 | 0.00 | 99 | 1009.3 |
| 20260502160357 | 78 | 266 | 5.0 | 4.0 | 0.00 | 0.00 | 0.00 | 99 | 1009.3 |
| 20260502160255 | 78 | 284 | 4.0 | 5.0 | 0.00 | 0.00 | 0.00 | 99 | 1009.3 |
| 20260502160155 | 78 | 284 | 5.0 | 4.0 | 0.00 | 0.00 | 0.00 | 99 | 1009.3 |
| 20260502160114 | 78 | 287 | 4.0 | 4.0 | 0.00 | 0.00 | 0.00 | 99 | 1009.3 |
| 20260502152306 | 79 | 278 | 5.0 | 6.0 | 0.00 | 0.00 | 0.00 | 99 | 1009.0 |
| 20260502152155 | 79 | 273 | 6.0 | 6.0 | 0.00 | 0.00 | 0.00 | 99 | 1009.0 |
| 20260502152113 | 79 | 266 | 6.0 | 5.0 | 0.00 | 0.00 | 0.00 | 99 | 1009.0 |
| 20260502152001 | 79 | 270 | 5.0 | 6.0 | 0.00 | 0.00 | 0.00 | 99 | 1009.0 |
| 20260502151755 | 79 | 255 | 6.0 | 6.0 | 0.00 | 0.00 | 0.00 | 99 | 1009.0 |
| 20260502151705 | 79 | 259 | 6.0 | 5.0 | 0.00 | 0.00 | 0.00 | 99 | 1008.9 |
| 20260502151617 | 79 | 268 | 5.0 | 4.0 | 0.00 | 0.00 | 0.00 | 99 | 1008.9 |
| 20260502151456 | 79 | 256 | 4.0 | 5.0 | 0.00 | 0.00 | 0.00 | 99 | 1008.9 |
| 20260502151355 | 79 | 265 | 5.0 | 4.0 | 0.00 | 0.00 | 0.00 | 99 | 1008.9 |
| 20260502151259 | 80 | 269 | 4.0 | 4.0 | 0.00 | 0.00 | 0.00 | 99 | 1008.9 |
| 20260502151157 | 80 | 266 | 4.0 | 4.0 | 0.00 | 0.00 | 0.00 | 99 | 1008.9 |
| 20260502151055 | 80 | 267 | 4.0 | 4.0 | 0.00 | 0.00 | 0.00 | 99 | 1008.9 |
| 20260502150955 | 80 | 272 | 4.0 | 4.0 | 0.00 | 0.00 | 0.00 | 99 | 1008.8 |
| 20260502150855 | 80 | 273 | 4.0 | 4.0 | 0.00 | 0.00 | 0.00 | 99 | 1008.8 |
| 20260502150755 | 80 | 283 | 3.0 | 3.0 | 0.00 | 0.00 | 0.00 | 99 | 1008.8 |
| 20260502150655 | 80 | 270 | 3.0 | 3.0 | 0.00 | 0.00 | 0.00 | 99 | 1008.8 |
| 20260502150555 | 80 | 270 | 3.0 | 3.0 | 0.00 | 0.00 | 0.00 | 99 | 1008.9 |
| 20260502150455 | 80 | 278 | 3.0 | 3.0 | 0.00 | 0.00 | 0.00 | 99 | 1008.9 |
| 20260502150355 | 80 | 262 | 3.0 | 4.0 | 0.00 | 0.00 | 0.00 | 99 | 1008.9 |
| 20260502150257 | 80 | 257 | 4.0 | 4.0 | 0.00 | 0.00 | 0.00 | 99 | 1008.9 |
| 20260502150155 | 80 | 259 | 4.0 | 4.0 | 0.00 | 0.00 | 0.00 | 99 | 1008.9 |
| 20260502130654 | 83 | 253 | 4.0 | 4.0 | 0.00 | 0.00 | 0.00 | 98 | 1007.9 |
| 20260502130554 | 83 | 252 | 4.0 | 4.0 | 0.00 | 0.00 | 0.00 | 98 | 1007.9 |
| 20260502130454 | 83 | 252 | 4.0 | 5.0 | 0.00 | 0.00 | 0.00 | 98 | 1007.9 |
| 20260502130354 | 83 | 248 | 5.0 | 5.0 | 0.00 | 0.00 | 0.00 | 98 | 1007.9 |
| 20260502130254 | 83 | 240 | 5.0 | 5.0 | 0.00 | 0.00 | 0.00 | 97 | 1007.9 |
| 20260502130156 | 83 | 240 | 5.0 | 5.0 | 0.00 | 0.00 | 0.00 | 97 | 1007.9 |
| 20260502123753 | 84 | 116 | 0.0 | 0.0 | 0.00 | 0.00 | 0.00 | 97 | 1007.3 |
| 20260502123655 | 84 | 116 | 0.0 | 0.0 | 0.00 | 0.00 | 0.00 | 96 | 1007.3 |
| 20260502123553 | 84 | 116 | 0.0 | 0.0 | 0.00 | 0.00 | 0.00 | 96 | 1007.2 |
| 20260502123453 | 84 | 116 | 0.0 | 0.0 | 0.00 | 0.00 | 0.00 | 96 | 1007.2 |
| 20260502123353 | 84 | 116 | 0.0 | 0.0 | 0.00 | 0.00 | 0.00 | 96 | 1007.2 |
| 20260502123253 | 84 | 116 | 0.0 | 0.0 | 0.00 | 0.00 | 0.00 | 95 | 1007.2 |
| 20260502123153 | 84 | 116 | 0.0 | 0.0 | 0.00 | 0.00 | 0.00 | 95 | 1007.2 |
| 20260502123101 | 84 | 117 | 0.0 | 0.0 | 0.00 | 0.00 | 0.00 | 95 | 1007.2 |
| 20260502122953 | 84 | 117 | 0.0 | 0.0 | 0.00 | 0.00 | 0.00 | 95 | 1007.2 |
| 20260502122857 | 84 | 117 | 0.0 | 0.0 | 0.00 | 0.00 | 0.00 | 95 | 1007.2 |
| 20260502122753 | 84 | 117 | 0.0 | 0.0 | 0.00 | 0.00 | 0.00 | 95 | 1007.1 |
| 20260502122653 | 84 | 117 | 0.0 | 0.0 | 0.00 | 0.00 | 0.00 | 95 | 1007.1 |
| 20260502122554 | 84 | 117 | 0.0 | 0.0 | 0.00 | 0.00 | 0.00 | 95 | 1007.1 |
| 20260502122509 | 84 | 117 | 0.0 | 0.0 | 0.00 | 0.00 | 0.00 | 95 | 1007.1 |
| 20260502122353 | 84 | 117 | 0.0 | 0.0 | 0.00 | 0.00 | 0.00 | 95 | 1007.1 |
| 20260502122253 | 84 | 117 | 0.0 | 0.0 | 0.00 | 0.00 | 0.00 | 95 | 1007.1 |
| 20260502122153 | 84 | 117 | 0.0 | 0.0 | 0.00 | 0.00 | 0.00 | 95 | 1007.1 |
| 20260502122053 | 84 | 117 | 0.0 | 0.0 | 0.00 | 0.00 | 0.00 | 95 | 1007.0 |
| 20260502121953 | 84 | 117 | 0.0 | 0.0 | 0.00 | 0.00 | 0.00 | 95 | 1007.0 |
| 20260502121853 | 84 | 117 | 0.0 | 0.0 | 0.00 | 0.00 | 0.00 | 95 | 1007.0 |
| 20260502121753 | 84 | 117 | 0.0 | 0.0 | 0.00 | 0.00 | 0.00 | 95 | 1007.0 |
| 20260502121653 | 84 | 117 | 0.0 | 0.0 | 0.00 | 0.00 | 0.00 | 95 | 1006.9 |
| 20260502121608 | 84 | 117 | 0.0 | 0.0 | 0.00 | 0.00 | 0.00 | 95 | 1006.9 |
| 20260502121453 | 84 | 100 | 0.0 | 0.0 | 0.00 | 0.00 | 0.00 | 95 | 1006.9 |
| 20260502121353 | 84 | 91 | 0.0 | 0.0 | 0.00 | 0.00 | 0.00 | 95 | 1006.8 |
| 20260502121253 | 84 | 91 | 0.0 | 0.0 | 0.00 | 0.00 | 0.00 | 95 | 1006.8 |
| 20260502121159 | 84 | 91 | 0.0 | 0.0 | 0.00 | 0.00 | 0.00 | 95 | 1006.8 |
| 20260502121053 | 84 | 91 | 0.0 | 0.0 | 0.00 | 0.00 | 0.00 | 95 | 1006.7 |
| 20260502120953 | 84 | 91 | 0.0 | 0.0 | 0.00 | 0.00 | 0.00 | 95 | 1006.7 |
| 20260502120853 | 84 | 91 | 0.0 | 1.0 | 0.00 | 0.00 | 0.00 | 95 | 1006.6 |
| 20260502120753 | 84 | 91 | 0.0 | 0.0 | 0.00 | 0.00 | 0.00 | 95 | 1006.6 |
| 20260502120653 | 84 | 91 | 0.0 | 0.0 | 0.00 | 0.00 | 0.00 | 95 | 1006.6 |
| 20260502120553 | 84 | 91 | 0.0 | 0.0 | 0.00 | 0.00 | 0.00 | 95 | 1006.5 |
| 20260502120453 | 84 | 91 | 0.0 | 0.0 | 0.00 | 0.00 | 0.00 | 95 | 1006.5 |
| 20260502120353 | 84 | 91 | 0.0 | 0.0 | 0.00 | 0.00 | 0.00 | 95 | 1006.4 |
| 20260502120255 | 84 | 90 | 0.0 | 0.0 | 0.00 | 0.00 | 0.00 | 95 | 1006.4 |
| 20260502120153 | 84 | 90 | 0.0 | 0.0 | 0.00 | 0.00 | 0.00 | 95 | 1006.4 |
| 20260502115856 | 84 | 90 | 1.0 | 2.0 | 0.00 | 0.00 | 0.00 | 94 | 1006.3 |
| 20260502115753 | 84 | 90 | 1.0 | 1.0 | 0.00 | 0.00 | 0.00 | 94 | 1006.2 |
| 20260502115653 | 84 | 90 | 1.0 | 1.0 | 0.00 | 0.00 | 0.00 | 94 | 1006.2 |
| 20260502115553 | 84 | 90 | 1.0 | 2.0 | 0.00 | 0.00 | 0.00 | 94 | 1006.2 |
| 20260502115453 | 84 | 90 | 2.0 | 2.0 | 0.00 | 0.00 | 0.00 | 94 | 1006.1 |
| 20260502115353 | 84 | 90 | 2.0 | 2.0 | 0.00 | 0.00 | 0.00 | 94 | 1006.1 |
| 20260502115253 | 84 | 98 | 2.0 | 2.0 | 0.00 | 0.00 | 0.00 | 94 | 1006.1 |
| 20260502115153 | 84 | 97 | 2.0 | 2.0 | 0.00 | 0.00 | 0.00 | 94 | 1006.0 |
| 20260502115053 | 84 | 89 | 2.0 | 2.0 | 0.00 | 0.00 | 0.00 | 94 | 1006.0 |
| 20260502114953 | 84 | 81 | 2.0 | 2.0 | 0.00 | 0.00 | 0.00 | 94 | 1006.0 |
| 20260502114853 | 84 | 93 | 2.0 | 4.0 | 0.00 | 0.00 | 0.00 | 93 | 1006.0 |
| 20260502114753 | 84 | 88 | 2.0 | 3.0 | 0.00 | 0.00 | 0.00 | 93 | 1006.0 |
| 20260502114653 | 84 | 69 | 3.0 | 2.0 | 0.00 | 0.00 | 0.00 | 93 | 1006.0 |
| 20260502114607 | 84 | 84 | 2.0 | 3.0 | 0.00 | 0.00 | 0.00 | 93 | 1005.9 |
| 20260502114453 | 84 | 91 | 3.0 | 3.0 | 0.00 | 0.00 | 0.00 | 93 | 1006.0 |
| 20260502114353 | 84 | 82 | 3.0 | 2.0 | 0.00 | 0.00 | 0.00 | 93 | 1006.0 |
| 20260502114253 | 85 | 70 | 2.0 | 3.0 | 0.00 | 0.00 | 0.00 | 93 | 1005.9 |
| 20260502114153 | 85 | 65 | 3.0 | 4.0 | 0.00 | 0.00 | 0.00 | 93 | 1006.0 |
| 20260502114053 | 85 | 47 | 4.0 | 5.0 | 0.00 | 0.00 | 0.00 | 93 | 1006.0 |
| 20260502113953 | 85 | 55 | 5.0 | 3.0 | 0.00 | 0.00 | 0.00 | 92 | 1006.0 |
| 20260502113853 | 85 | 43 | 3.0 | 4.0 | 0.00 | 0.00 | 0.00 | 92 | 1006.0 |
| 20260502113753 | 85 | 62 | 3.0 | 3.0 | 0.00 | 0.00 | 0.00 | 92 | 1006.0 |
| 20260502113653 | 85 | 54 | 3.0 | 4.0 | 0.00 | 0.00 | 0.00 | 92 | 1006.0 |
| 20260502113553 | 85 | 60 | 4.0 | 3.0 | 0.00 | 0.00 | 0.00 | 92 | 1005.9 |
| 20260502113453 | 85 | 58 | 3.0 | 4.0 | 0.00 | 0.00 | 0.00 | 92 | 1005.9 |
| 20260502113353 | 85 | 73 | 4.0 | 4.0 | 0.00 | 0.00 | 0.00 | 92 | 1005.9 |
| 20260502113301 | 85 | 68 | 4.0 | 3.0 | 0.00 | 0.00 | 0.00 | 92 | 1005.9 |
| 20260502113157 | 85 | 63 | 3.0 | 3.0 | 0.00 | 0.00 | 0.00 | 92 | 1005.9 |
| 20260502113056 | 85 | 59 | 3.0 | 4.0 | 0.00 | 0.00 | 0.00 | 92 | 1005.9 |
| 20260502112953 | 85 | 50 | 4.0 | 4.0 | 0.00 | 0.00 | 0.00 | 91 | 1005.9 |
| 20260502112853 | 85 | 33 | 4.0 | 4.0 | 0.00 | 0.00 | 0.00 | 91 | 1005.9 |
| 20260502112759 | 85 | 45 | 3.0 | 2.0 | 0.00 | 0.00 | 0.00 | 91 | 1005.9 |
| 20260502112653 | 85 | 57 | 2.0 | 5.0 | 0.00 | 0.00 | 0.00 | 91 | 1005.9 |
| 20260502112555 | 85 | 80 | 5.0 | 5.0 | 0.00 | 0.00 | 0.00 | 91 | 1005.9 |
| 20260502112453 | 85 | 39 | 5.0 | 6.0 | 0.00 | 0.00 | 0.00 | 91 | 1005.9 |
| 20260502112353 | 85 | 73 | 6.0 | 5.0 | 0.00 | 0.00 | 0.00 | 91 | 1005.9 |
| 20260502112253 | 85 | 57 | 5.0 | 5.0 | 0.00 | 0.00 | 0.00 | 91 | 1005.9 |
| 20260502112153 | 85 | 72 | 5.0 | 5.0 | 0.00 | 0.00 | 0.00 | 91 | 1005.9 |
| 20260502112053 | 85 | 50 | 5.0 | 4.0 | 0.00 | 0.00 | 0.00 | 91 | 1005.8 |
| 20260502111953 | 85 | 67 | 4.0 | 4.0 | 0.00 | 0.00 | 0.00 | 91 | 1005.8 |
| 20260502111853 | 85 | 85 | 4.0 | 5.0 | 0.00 | 0.00 | 0.00 | 90 | 1005.8 |
| 20260502111753 | 85 | 68 | 4.0 | 3.0 | 0.00 | 0.00 | 0.00 | 90 | 1005.8 |
| 20260502111653 | 85 | 64 | 3.0 | 4.0 | 0.00 | 0.00 | 0.00 | 90 | 1005.8 |
| 20260502111607 | 85 | 62 | 4.0 | 5.0 | 0.00 | 0.00 | 0.00 | 90 | 1005.8 |
| 20260502111453 | 85 | 71 | 5.0 | 3.0 | 0.00 | 0.00 | 0.00 | 90 | 1005.8 |
| 20260502111353 | 85 | 59 | 3.0 | 2.0 | 0.00 | 0.00 | 0.00 | 90 | 1005.8 |
| 20260502111253 | 85 | 67 | 2.0 | 3.0 | 0.00 | 0.00 | 0.00 | 90 | 1005.8 |
| 20260502111153 | 85 | 63 | 3.0 | 4.0 | 0.00 | 0.00 | 0.00 | 90 | 1005.8 |
| 20260502111053 | 86 | 65 | 4.0 | 4.0 | 0.00 | 0.00 | 0.00 | 90 | 1005.8 |
| 20260502110953 | 86 | 68 | 4.0 | 6.0 | 0.00 | 0.00 | 0.00 | 90 | 1005.7 |
| 20260502110858 | 86 | 60 | 6.0 | 5.0 | 0.00 | 0.00 | 0.00 | 89 | 1005.7 |
| 20260502110753 | 86 | 70 | 6.0 | 4.0 | 0.00 | 0.00 | 0.00 | 89 | 1005.7 |
| 20260502110655 | 86 | 57 | 4.0 | 5.0 | 0.00 | 0.00 | 0.00 | 89 | 1005.7 |
| 20260502110555 | 86 | 65 | 5.0 | 4.0 | 0.00 | 0.00 | 0.00 | 89 | 1005.7 |
| 20260502110453 | 86 | 84 | 4.0 | 5.0 | 0.00 | 0.00 | 0.00 | 89 | 1005.7 |
| 20260502110353 | 86 | 60 | 5.0 | 5.0 | 0.00 | 0.00 | 0.00 | 89 | 1005.6 |
| 20260502110253 | 86 | 64 | 5.0 | 4.0 | 0.00 | 0.00 | 0.00 | 89 | 1005.6 |
| 20260502110155 | 86 | 66 | 4.0 | 3.0 | 0.00 | 0.00 | 0.00 | 89 | 1005.6 |
| 20260502110107 | 86 | 61 | 3.0 | 5.0 | 0.00 | 0.00 | 0.00 | 89 | 1005.6 |
| 20260502105953 | 86 | 83 | 5.0 | 6.0 | 0.00 | 0.00 | 0.00 | 89 | 1005.5 |
| 20260502105853 | 86 | 41 | 6.0 | 6.0 | 0.00 | 0.00 | 0.00 | 89 | 1005.5 |
| 20260502105753 | 86 | 54 | 4.0 | 4.0 | 0.00 | 0.00 | 0.00 | 89 | 1005.5 |
| 20260502105653 | 86 | 64 | 4.0 | 4.0 | 0.00 | 0.00 | 0.00 | 89 | 1005.5 |
| 20260502105553 | 86 | 79 | 4.0 | 4.0 | 0.00 | 0.00 | 0.00 | 89 | 1005.4 |
| 20260502105453 | 86 | 54 | 4.0 | 6.0 | 0.00 | 0.00 | 0.00 | 89 | 1005.4 |
| 20260502105353 | 86 | 62 | 6.0 | 5.0 | 0.00 | 0.00 | 0.00 | 89 | 1005.4 |
| 20260502105253 | 86 | 74 | 5.0 | 5.0 | 0.00 | 0.00 | 0.00 | 89 | 1005.4 |
| 20260502105153 | 86 | 62 | 5.0 | 6.0 | 0.00 | 0.00 | 0.00 | 89 | 1005.4 |
| 20260502105053 | 86 | 79 | 6.0 | 5.0 | 0.00 | 0.00 | 0.00 | 89 | 1005.4 |
| 20260502104953 | 86 | 79 | 5.0 | 5.0 | 0.00 | 0.00 | 0.00 | 89 | 1005.4 |
| 20260502104853 | 86 | 48 | 5.0 | 7.0 | 0.00 | 0.00 | 0.00 | 89 | 1005.4 |
| 20260502104753 | 86 | 41 | 6.0 | 6.0 | 0.00 | 0.00 | 0.00 | 89 | 1005.4 |
| 20260502104653 | 86 | 53 | 6.0 | 4.0 | 0.00 | 0.00 | 0.00 | 89 | 1005.3 |
| 20260502104607 | 86 | 60 | 4.0 | 5.0 | 0.00 | 0.00 | 0.00 | 89 | 1005.3 |
| 20260502104453 | 86 | 61 | 5.0 | 6.0 | 0.00 | 0.00 | 0.00 | 88 | 1005.3 |
| 20260502104353 | 86 | 59 | 6.0 | 7.0 | 0.00 | 0.00 | 0.00 | 88 | 1005.3 |
| 20260502104253 | 86 | 49 | 7.0 | 7.0 | 0.00 | 0.00 | 0.00 | 88 | 1005.3 |
| 20260502104153 | 86 | 67 | 7.0 | 6.0 | 0.00 | 0.00 | 0.00 | 88 | 1005.3 |
| 20260502104053 | 86 | 22 | 6.0 | 8.0 | 0.00 | 0.00 | 0.00 | 88 | 1005.2 |
| 20260502103953 | 86 | 42 | 8.0 | 8.0 | 0.00 | 0.00 | 0.00 | 88 | 1005.2 |
| 20260502103853 | 86 | 17 | 8.0 | 6.0 | 0.00 | 0.00 | 0.00 | 88 | 1005.2 |
| 20260502103753 | 86 | 45 | 7.0 | 6.0 | 0.00 | 0.00 | 0.00 | 87 | 1005.2 |
| 20260502103653 | 86 | 53 | 6.0 | 7.0 | 0.00 | 0.00 | 0.00 | 87 | 1005.2 |
| 20260502103553 | 86 | 45 | 7.0 | 7.0 | 0.00 | 0.00 | 0.00 | 87 | 1005.2 |
| 20260502103453 | 86 | 51 | 7.0 | 7.0 | 0.00 | 0.00 | 0.00 | 87 | 1005.2 |
| 20260502103353 | 86 | 55 | 7.0 | 9.0 | 0.00 | 0.00 | 0.00 | 87 | 1005.2 |
| 20260502103253 | 86 | 54 | 9.0 | 8.0 | 0.00 | 0.00 | 0.00 | 87 | 1005.3 |
| 20260502103152 | 86 | 62 | 8.0 | 7.0 | 0.00 | 0.00 | 0.00 | 86 | 1005.3 |
| 20260502103056 | 87 | 71 | 7.0 | 6.0 | 0.00 | 0.00 | 0.00 | 86 | 1005.3 |
| 20260502102953 | 87 | 49 | 6.0 | 5.0 | 0.00 | 0.00 | 0.00 | 86 | 1005.3 |
| 20260502102853 | 87 | 49 | 5.0 | 8.0 | 0.00 | 0.00 | 0.00 | 86 | 1005.3 |
| 20260502102753 | 87 | 72 | 7.0 | 7.0 | 0.00 | 0.00 | 0.00 | 86 | 1005.3 |
| 20260502102652 | 87 | 51 | 7.0 | 7.0 | 0.00 | 0.00 | 0.00 | 86 | 1005.2 |
| 20260502102552 | 87 | 62 | 7.0 | 7.0 | 0.00 | 0.00 | 0.00 | 85 | 1005.2 |
| 20260502102453 | 87 | 51 | 7.0 | 8.0 | 0.00 | 0.00 | 0.00 | 86 | 1005.2 |
| 20260502102353 | 87 | 55 | 8.0 | 5.0 | 0.00 | 0.00 | 0.00 | 86 | 1005.2 |
| 20260502102253 | 87 | 55 | 5.0 | 5.0 | 0.00 | 0.00 | 0.00 | 87 | 1005.2 |
| 20260502102152 | 87 | 55 | 5.0 | 6.0 | 0.00 | 0.00 | 0.00 | 86 | 1005.2 |
| 20260502102054 | 87 | 63 | 6.0 | 7.0 | 0.00 | 0.00 | 0.00 | 86 | 1005.2 |
| 20260502101953 | 87 | 50 | 7.0 | 8.0 | 0.00 | 0.00 | 0.00 | 86 | 1005.2 |
| 20260502101853 | 87 | 30 | 8.0 | 6.0 | 0.00 | 0.00 | 0.00 | 85 | 1005.2 |
| 20260502101753 | 87 | 54 | 8.0 | 7.0 | 0.00 | 0.00 | 0.00 | 85 | 1005.1 |
| 20260502101652 | 87 | 46 | 7.0 | 8.0 | 0.00 | 0.00 | 0.00 | 85 | 1005.1 |
| 20260502101622 | 87 | 58 | 8.0 | 10.0 | 0.00 | 0.00 | 0.00 | 86 | 1005.1 |
| 20260502101453 | 87 | 49 | 10.0 | 7.0 | 0.00 | 0.00 | 0.00 | 85 | 1005.1 |
| 20260502101353 | 87 | 49 | 7.0 | 8.0 | 0.00 | 0.00 | 0.00 | 86 | 1005.1 |
| 20260502101252 | 87 | 55 | 8.0 | 8.0 | 0.00 | 0.00 | 0.00 | 86 | 1005.1 |
| 20260502101154 | 87 | 65 | 8.0 | 7.0 | 0.00 | 0.00 | 0.00 | 86 | 1005.1 |
| 20260502101053 | 87 | 46 | 7.0 | 8.0 | 0.00 | 0.00 | 0.00 | 86 | 1005.1 |
| 20260502100952 | 87 | 37 | 8.0 | 7.0 | 0.00 | 0.00 | 0.00 | 85 | 1005.1 |
| 20260502100853 | 87 | 45 | 7.0 | 9.0 | 0.00 | 0.00 | 0.00 | 86 | 1005.1 |
| 20260502100752 | 87 | 71 | 7.0 | 5.0 | 0.00 | 0.00 | 0.00 | 86 | 1005.1 |
| 20260502100654 | 87 | 73 | 5.0 | 5.0 | 0.00 | 0.00 | 0.00 | 86 | 1005.1 |
| 20260502100552 | 87 | 38 | 5.0 | 7.0 | 0.00 | 0.00 | 0.00 | 86 | 1005.1 |
| 20260502100454 | 87 | 50 | 7.0 | 7.0 | 0.00 | 0.00 | 0.00 | 85 | 1005.0 |
| 20260502100353 | 87 | 36 | 7.0 | 5.0 | 0.00 | 0.00 | 0.00 | 85 | 1005.0 |
| 20260502100252 | 87 | 2 | 5.0 | 7.0 | 0.00 | 0.00 | 0.00 | 85 | 1005.0 |
| 20260502100152 | 87 | 56 | 7.0 | 7.0 | 0.00 | 0.00 | 0.00 | 85 | 1005.0 |
| 20260502100106 | 87 | 61 | 7.0 | 9.0 | 0.00 | 0.00 | 0.00 | 84 | 1004.9 |
| 20260502091452 | 89 | 52 | 6.0 | 8.0 | 0.00 | 0.00 | 0.00 | 82 | 1004.2 |
| 20260502091352 | 89 | 14 | 8.0 | 9.0 | 0.00 | 0.00 | 0.00 | 82 | 1004.2 |
| 20260502091252 | 89 | 21 | 9.0 | 8.0 | 0.00 | 0.00 | 0.00 | 82 | 1004.2 |
| 20260502091156 | 89 | 12 | 8.0 | 7.0 | 0.00 | 0.00 | 0.00 | 81 | 1004.2 |
| 20260502091054 | 89 | 39 | 7.0 | 11.0 | 0.00 | 0.00 | 0.00 | 81 | 1004.2 |
| 20260502090952 | 89 | 51 | 11.0 | 9.0 | 0.00 | 0.00 | 0.00 | 81 | 1004.2 |
| 20260502090854 | 89 | 25 | 9.0 | 10.0 | 0.00 | 0.00 | 0.00 | 80 | 1004.2 |
| 20260502090756 | 89 | 15 | 10.0 | 13.0 | 0.00 | 0.00 | 0.00 | 80 | 1004.2 |
| 20260502090656 | 89 | 47 | 13.0 | 8.0 | 0.00 | 0.00 | 0.00 | 80 | 1004.2 |
| 20260502090552 | 89 | 16 | 8.0 | 9.0 | 0.00 | 0.00 | 0.00 | 81 | 1004.2 |
| 20260502090452 | 89 | 33 | 9.0 | 12.0 | 0.00 | 0.00 | 0.00 | 81 | 1004.2 |
| 20260502090352 | 90 | 58 | 12.0 | 12.0 | 0.00 | 0.00 | 0.00 | 80 | 1004.2 |
| 20260502090252 | 90 | 43 | 12.0 | 9.0 | 0.00 | 0.00 | 0.00 | 80 | 1004.2 |
| 20260502090156 | 90 | 29 | 9.0 | 13.0 | 0.00 | 0.00 | 0.00 | 80 | 1004.1 |
| 20260502071451 | 92 | 131 | 9.0 | 12.0 | 0.00 | 0.00 | 0.00 | 77 | 1006.0 |
| 20260502071351 | 92 | 127 | 12.0 | 10.0 | 0.00 | 0.00 | 0.00 | 75 | 1006.0 |
| 20260502071253 | 92 | 89 | 10.0 | 10.0 | 0.00 | 0.00 | 0.00 | 73 | 1006.0 |
| 20260502071151 | 92 | 92 | 10.0 | 9.0 | 0.00 | 0.00 | 0.00 | 74 | 1006.0 |
| 20260502071051 | 92 | 84 | 9.0 | 7.0 | 0.00 | 0.00 | 0.00 | 75 | 1006.0 |
| 20260502070953 | 91 | 82 | 7.0 | 7.0 | 0.00 | 0.00 | 0.00 | 78 | 1006.0 |
| 20260502070851 | 91 | 41 | 7.0 | 10.0 | 0.00 | 0.00 | 0.00 | 78 | 1006.0 |
| 20260502070751 | 91 | 32 | 8.0 | 8.0 | 0.00 | 0.00 | 0.00 | 79 | 1006.0 |
| 20260502070653 | 91 | 22 | 8.0 | 6.0 | 0.00 | 0.00 | 0.00 | 79 | 1006.0 |
| 20260502070551 | 90 | 8 | 6.0 | 4.0 | 0.00 | 0.00 | 0.00 | 81 | 1006.1 |
| 20260502070453 | 90 | 2 | 4.0 | 7.0 | 0.00 | 0.00 | 0.00 | 81 | 1006.1 |
| 20260502070353 | 90 | 92 | 7.0 | 9.0 | 0.00 | 0.00 | 0.00 | 80 | 1006.1 |
| 20260502070251 | 90 | 31 | 9.0 | 8.0 | 0.00 | 0.00 | 0.00 | 80 | 1006.1 |
| 20260502070154 | 90 | 45 | 8.0 | 12.0 | 0.00 | 0.00 | 0.00 | 81 | 1006.1 |
| 20260502065955 | 90 | 0 | 11.0 | 9.0 | 0.00 | 0.00 | 0.00 | 79 | 1006.1 |
| 20260502065853 | 90 | 10 | 9.0 | 10.0 | 0.00 | 0.00 | 0.00 | 80 | 1006.1 |
| 20260502065751 | 90 | 22 | 11.0 | 8.0 | 0.00 | 0.00 | 0.00 | 79 | 1006.1 |
| 20260502065651 | 90 | 21 | 8.0 | 10.0 | 0.00 | 0.00 | 0.00 | 80 | 1006.1 |
| 20260502065551 | 90 | 16 | 10.0 | 10.0 | 0.00 | 0.00 | 0.00 | 80 | 1006.1 |
| 20260502065451 | 91 | 28 | 10.0 | 11.0 | 0.00 | 0.00 | 0.00 | 79 | 1006.2 |
| 20260502065352 | 91 | 310 | 11.0 | 13.0 | 0.00 | 0.00 | 0.00 | 78 | 1006.2 |
| 20260502065252 | 91 | 9 | 13.0 | 10.0 | 0.00 | 0.00 | 0.00 | 77 | 1006.2 |
| 20260502065151 | 92 | 11 | 10.0 | 6.0 | 0.00 | 0.00 | 0.00 | 78 | 1006.2 |
| 20260502065053 | 91 | 17 | 6.0 | 9.0 | 0.00 | 0.00 | 0.00 | 79 | 1006.3 |
| 20260502064951 | 91 | 40 | 9.0 | 10.0 | 0.00 | 0.00 | 0.00 | 80 | 1006.3 |
| 20260502064851 | 91 | 2 | 10.0 | 9.0 | 0.00 | 0.00 | 0.00 | 78 | 1006.3 |
| 20260502064751 | 91 | 21 | 9.0 | 9.0 | 0.00 | 0.00 | 0.00 | 80 | 1006.4 |
| 20260502064651 | 90 | 4 | 9.0 | 10.0 | 0.00 | 0.00 | 0.00 | 82 | 1006.4 |
| 20260502064605 | 90 | 17 | 10.0 | 11.0 | 0.00 | 0.00 | 0.00 | 81 | 1006.4 |
| 20260502064451 | 90 | 26 | 11.0 | 12.0 | 0.00 | 0.00 | 0.00 | 81 | 1006.4 |
| 20260502064353 | 90 | 26 | 12.0 | 12.0 | 0.00 | 0.00 | 0.00 | 80 | 1006.5 |
| 20260502064251 | 90 | 9 | 12.0 | 7.0 | 0.00 | 0.00 | 0.00 | 81 | 1006.5 |
| 20260502064151 | 90 | 6 | 7.0 | 10.0 | 0.00 | 0.00 | 0.00 | 83 | 1006.5 |
| 20260502064052 | 90 | 42 | 10.0 | 9.0 | 0.00 | 0.00 | 0.00 | 81 | 1006.5 |
| 20260502063953 | 90 | 5 | 9.0 | 9.0 | 0.00 | 0.00 | 0.00 | 82 | 1006.6 |
| 20260502063852 | 90 | 355 | 9.0 | 10.0 | 0.00 | 0.00 | 0.00 | 82 | 1006.6 |
| 20260502063752 | 89 | 25 | 8.0 | 11.0 | 0.00 | 0.00 | 0.00 | 81 | 1006.6 |
| 20260502063651 | 90 | 31 | 11.0 | 10.0 | 0.00 | 0.00 | 0.00 | 81 | 1006.6 |
| 20260502063551 | 90 | 13 | 10.0 | 11.0 | 0.00 | 0.00 | 0.00 | 81 | 1006.6 |
| 20260502063451 | 90 | 16 | 11.0 | 10.0 | 0.00 | 0.00 | 0.00 | 82 | 1006.6 |
| 20260502063358 | 90 | 18 | 10.0 | 9.0 | 0.00 | 0.00 | 0.00 | 82 | 1006.6 |
| 20260502063251 | 90 | 23 | 9.0 | 9.0 | 0.00 | 0.00 | 0.00 | 83 | 1006.6 |
| 20260502063151 | 90 | 25 | 9.0 | 8.0 | 0.00 | 0.00 | 0.00 | 83 | 1006.6 |
| 20260502063104 | 90 | 26 | 8.0 | 10.0 | 0.00 | 0.00 | 0.00 | 83 | 1006.6 |
| 20260502062951 | 90 | 18 | 10.0 | 11.0 | 0.00 | 0.00 | 0.00 | 82 | 1006.6 |
| 20260502062852 | 90 | 256 | 11.0 | 6.0 | 0.00 | 0.00 | 0.00 | 83 | 1006.6 |
| 20260502062751 | 90 | 2 | 11.0 | 10.0 | 0.00 | 0.00 | 0.00 | 83 | 1006.6 |
| 20260502062651 | 90 | 314 | 10.0 | 11.0 | 0.00 | 0.00 | 0.00 | 84 | 1006.6 |
| 20260502062551 | 90 | 355 | 11.0 | 10.0 | 0.00 | 0.00 | 0.00 | 85 | 1006.6 |
| 20260502062451 | 90 | 0 | 10.0 | 9.0 | 0.00 | 0.00 | 0.00 | 85 | 1006.7 |
| 20260502062351 | 90 | 3 | 9.0 | 10.0 | 0.00 | 0.00 | 0.00 | 85 | 1006.7 |
| 20260502062251 | 89 | 256 | 10.0 | 10.0 | 0.00 | 0.00 | 0.00 | 85 | 1006.7 |
| 20260502062151 | 89 | 34 | 10.0 | 8.0 | 0.00 | 0.00 | 0.00 | 85 | 1006.7 |
| 20260502062056 | 89 | 16 | 8.0 | 7.0 | 0.00 | 0.00 | 0.00 | 88 | 1006.8 |
| 20260502061951 | 89 | 0 | 7.0 | 7.0 | 0.00 | 0.00 | 0.00 | 88 | 1006.8 |
| 20260502061851 | 89 | 8 | 7.0 | 4.0 | 0.00 | 0.00 | 0.00 | 89 | 1006.8 |
| 20260502061751 | 89 | 6 | 6.0 | 8.0 | 0.00 | 0.00 | 0.00 | 90 | 1006.9 |
| 20260502061654 | 89 | 0 | 8.0 | 5.0 | 0.00 | 0.00 | 0.00 | 90 | 1006.9 |
| 20260502061558 | 88 | 355 | 5.0 | 8.0 | 0.00 | 0.00 | 0.00 | 92 | 1006.9 |
| 20260502061452 | 88 | 355 | 8.0 | 7.0 | 0.00 | 0.00 | 0.00 | 89 | 1006.9 |
| 20260502061351 | 88 | 313 | 7.0 | 6.0 | 0.00 | 0.00 | 0.00 | 90 | 1007.0 |
| 20260502061252 | 88 | 355 | 6.0 | 4.0 | 0.00 | 0.00 | 0.00 | 91 | 1007.0 |
| 20260502061152 | 88 | 355 | 4.0 | 4.0 | 0.00 | 0.00 | 0.00 | 94 | 1007.0 |
| 20260502061052 | 87 | 8 | 4.0 | 4.0 | 0.00 | 0.00 | 0.00 | 95 | 1007.1 |
| 20260502060951 | 87 | 355 | 4.0 | 4.0 | 0.00 | 0.00 | 0.00 | 95 | 1007.1 |
| 20260502060852 | 87 | 334 | 4.0 | 6.0 | 0.00 | 0.00 | 0.00 | 96 | 1007.1 |
| 20260502060751 | 86 | 0 | 4.0 | 3.0 | 0.00 | 0.00 | 0.00 | 94 | 1007.1 |
| 20260502060654 | 86 | 23 | 3.0 | 3.0 | 0.00 | 0.00 | 0.00 | 94 | 1007.2 |
| 20260502060551 | 86 | 355 | 3.0 | 4.0 | 0.00 | 0.00 | 0.00 | 95 | 1007.2 |
| 20260502060451 | 85 | 9 | 4.0 | 3.0 | 0.00 | 0.00 | 0.00 | 95 | 1007.2 |
| 20260502060351 | 85 | 33 | 3.0 | 4.0 | 0.00 | 0.00 | 0.00 | 97 | 1007.2 |
| 20260502060250 | 85 | 37 | 4.0 | 4.0 | 0.00 | 0.00 | 0.00 | 96 | 1007.3 |
| 20260502060238 | 85 | 31 | 4.0 | 5.0 | 0.00 | 0.00 | 0.00 | 96 | 1007.3 |
| 20260502060101 | 85 | 42 | 5.0 | 4.0 | 0.00 | 0.00 | 0.00 | 96 | 1007.3 |
| 20260502055950 | 85 | 58 | 4.0 | 5.0 | 0.00 | 0.00 | 0.00 | 98 | 1007.3 |
| 20260502055856 | 84 | 63 | 5.0 | 6.0 | 0.00 | 0.00 | 0.00 | 97 | 1007.3 |
| 20260502055753 | 84 | 54 | 6.0 | 4.0 | 0.00 | 0.00 | 0.00 | 95 | 1007.3 |
| 20260502055657 | 84 | 48 | 4.0 | 4.0 | 0.00 | 0.00 | 0.00 | 97 | 1007.3 |
| 20260502055550 | 84 | 54 | 4.0 | 5.0 | 0.00 | 0.00 | 0.00 | 95 | 1007.3 |
| 20260502055455 | 84 | 124 | 5.0 | 5.0 | 0.00 | 0.00 | 0.00 | 94 | 1007.3 |
| 20260502055404 | 85 | 94 | 5.0 | 8.0 | 0.00 | 0.00 | 0.00 | 95 | 1007.3 |
| 20260502055250 | 85 | 94 | 8.0 | 9.0 | 0.00 | 0.00 | 0.00 | 96 | 1007.3 |
| 20260502055153 | 85 | 106 | 9.0 | 10.0 | 0.00 | 0.00 | 0.00 | 95 | 1007.3 |
| 20260502055050 | 86 | 119 | 10.0 | 7.0 | 0.00 | 0.00 | 0.00 | 93 | 1007.3 |
| 20260502054950 | 86 | 130 | 7.0 | 7.0 | 0.00 | 0.00 | 0.00 | 91 | 1007.3 |
| 20260502054850 | 87 | 116 | 7.0 | 9.0 | 0.00 | 0.00 | 0.00 | 90 | 1007.3 |
| 20260502054750 | 88 | 88 | 6.0 | 6.0 | 0.00 | 0.00 | 0.00 | 87 | 1007.3 |
| 20260502054652 | 88 | 106 | 6.0 | 6.0 | 0.00 | 0.00 | 0.00 | 84 | 1007.3 |
| 20260502054627 | 89 | 63 | 6.0 | 5.0 | 0.00 | 0.00 | 0.00 | 82 | 1007.2 |
| 20260502054450 | 89 | 48 | 5.0 | 7.0 | 0.00 | 0.00 | 0.00 | 82 | 1007.2 |
| 20260502054412 | 90 | 32 | 7.0 | 7.0 | 0.00 | 0.00 | 0.00 | 80 | 1007.2 |
| 20260502054252 | 90 | 62 | 7.0 | 5.0 | 0.00 | 0.00 | 0.00 | 79 | 1007.2 |
| 20260502054153 | 90 | 47 | 5.0 | 6.0 | 0.00 | 0.00 | 0.00 | 79 | 1007.2 |
| 20260502054050 | 90 | 54 | 6.0 | 8.0 | 0.00 | 0.00 | 0.00 | 79 | 1007.2 |
| 20260502053953 | 90 | 18 | 8.0 | 9.0 | 0.00 | 0.00 | 0.00 | 79 | 1007.2 |
| 20260502053854 | 90 | 32 | 9.0 | 9.0 | 0.00 | 0.00 | 0.00 | 79 | 1007.2 |
| 20260502053752 | 90 | 18 | 11.0 | 11.0 | 0.00 | 0.00 | 0.00 | 78 | 1007.2 |
| 20260502053658 | 90 | 11 | 11.0 | 7.0 | 0.00 | 0.00 | 0.00 | 78 | 1007.2 |
| 20260502053550 | 91 | 6 | 7.0 | 10.0 | 0.00 | 0.00 | 0.00 | 78 | 1007.2 |
| 20260502053453 | 91 | 18 | 10.0 | 10.0 | 0.00 | 0.00 | 0.00 | 77 | 1007.2 |
| 20260502053350 | 91 | 22 | 10.0 | 10.0 | 0.00 | 0.00 | 0.00 | 77 | 1007.3 |
| 20260502053250 | 91 | 21 | 10.0 | 9.0 | 0.00 | 0.00 | 0.00 | 77 | 1007.3 |
| 20260502053150 | 91 | 22 | 9.0 | 9.0 | 0.00 | 0.00 | 0.00 | 77 | 1007.3 |
| 20260502053104 | 91 | 20 | 9.0 | 8.0 | 0.00 | 0.00 | 0.00 | 78 | 1007.3 |
| 20260502052950 | 91 | 58 | 8.0 | 8.0 | 0.00 | 0.00 | 0.00 | 78 | 1007.3 |
| 20260502052850 | 91 | 355 | 8.0 | 8.0 | 0.00 | 0.00 | 0.00 | 76 | 1007.3 |
| 20260502052750 | 91 | 22 | 10.0 | 12.0 | 0.00 | 0.00 | 0.00 | 76 | 1007.3 |
| 20260502052650 | 91 | 17 | 12.0 | 8.0 | 0.00 | 0.00 | 0.00 | 76 | 1007.4 |
| 20260502052550 | 92 | 11 | 8.0 | 10.0 | 0.00 | 0.00 | 0.00 | 76 | 1007.4 |
| 20260502052450 | 92 | 18 | 10.0 | 10.0 | 0.00 | 0.00 | 0.00 | 76 | 1007.4 |
| 20260502052350 | 92 | 33 | 10.0 | 5.0 | 0.00 | 0.00 | 0.00 | 76 | 1007.4 |
| 20260502052250 | 92 | 53 | 5.0 | 7.0 | 0.00 | 0.00 | 0.00 | 79 | 1007.5 |
| 20260502052150 | 91 | 355 | 7.0 | 8.0 | 0.00 | 0.00 | 0.00 | 79 | 1007.5 |
| 20260502052050 | 91 | 9 | 8.0 | 7.0 | 0.00 | 0.00 | 0.00 | 78 | 1007.5 |
| 20260502051956 | 91 | 355 | 7.0 | 7.0 | 0.00 | 0.00 | 0.00 | 79 | 1007.5 |
| 20260502051850 | 91 | 355 | 7.0 | 9.0 | 0.00 | 0.00 | 0.00 | 77 | 1007.5 |
| 20260502051750 | 91 | 351 | 8.0 | 8.0 | 0.00 | 0.00 | 0.00 | 77 | 1007.5 |
| 20260502051650 | 91 | 267 | 8.0 | 10.0 | 0.00 | 0.00 | 0.00 | 78 | 1007.5 |
| 20260502051604 | 91 | 0 | 10.0 | 8.0 | 0.00 | 0.00 | 0.00 | 77 | 1007.5 |
| 20260502051456 | 92 | 32 | 8.0 | 7.0 | 0.00 | 0.00 | 0.00 | 77 | 1007.5 |
| 20260502051350 | 92 | 0 | 7.0 | 6.0 | 0.00 | 0.00 | 0.00 | 78 | 1007.6 |
| 20260502051250 | 92 | 10 | 6.0 | 8.0 | 0.00 | 0.00 | 0.00 | 79 | 1007.6 |
| 20260502051150 | 92 | 355 | 8.0 | 8.0 | 0.00 | 0.00 | 0.00 | 79 | 1007.6 |
| 20260502051050 | 91 | 16 | 8.0 | 8.0 | 0.00 | 0.00 | 0.00 | 79 | 1007.6 |
| 20260502050950 | 91 | 0 | 8.0 | 11.0 | 0.00 | 0.00 | 0.00 | 78 | 1007.6 |
| 20260502050850 | 92 | 355 | 11.0 | 8.0 | 0.00 | 0.00 | 0.00 | 77 | 1007.6 |
| 20260502050750 | 92 | 5 | 8.0 | 8.0 | 0.00 | 0.00 | 0.00 | 77 | 1007.6 |
| 20260502050650 | 92 | 355 | 8.0 | 8.0 | 0.00 | 0.00 | 0.00 | 77 | 1007.6 |
| 20260502050550 | 92 | 355 | 8.0 | 8.0 | 0.00 | 0.00 | 0.00 | 79 | 1007.7 |
| 20260502050453 | 92 | 158 | 8.0 | 7.0 | 0.00 | 0.00 | 0.00 | 78 | 1007.7 |
| 20260502050350 | 91 | 355 | 7.0 | 9.0 | 0.00 | 0.00 | 0.00 | 79 | 1007.7 |
| 20260502050255 | 91 | 355 | 9.0 | 8.0 | 0.00 | 0.00 | 0.00 | 78 | 1007.7 |
| 20260502050150 | 91 | 355 | 8.0 | 11.0 | 0.00 | 0.00 | 0.00 | 77 | 1007.7 |
| 20260502050052 | 91 | 355 | 11.0 | 9.0 | 0.00 | 0.00 | 0.00 | 76 | 1007.7 |
| 20260502045950 | 91 | 0 | 9.0 | 10.0 | 0.00 | 0.00 | 0.00 | 78 | 1007.8 |
| 20260502045850 | 91 | 18 | 10.0 | 8.0 | 0.00 | 0.00 | 0.00 | 77 | 1007.8 |
| 20260502045752 | 91 | 12 | 8.0 | 8.0 | 0.00 | 0.00 | 0.00 | 78 | 1007.8 |
| 20260502045650 | 91 | 4 | 8.0 | 8.0 | 0.00 | 0.00 | 0.00 | 78 | 1007.8 |
| 20260502045550 | 91 | 213 | 8.0 | 9.0 | 0.00 | 0.00 | 0.00 | 79 | 1007.8 |
| 20260502045450 | 91 | 6 | 9.0 | 10.0 | 0.00 | 0.00 | 0.00 | 77 | 1007.8 |
| 20260502045352 | 91 | 219 | 10.0 | 8.0 | 0.00 | 0.00 | 0.00 | 79 | 1007.8 |
| 20260502045250 | 91 | 36 | 8.0 | 8.0 | 0.00 | 0.00 | 0.00 | 80 | 1007.9 |
| 20260502045150 | 91 | 355 | 8.0 | 7.0 | 0.00 | 0.00 | 0.00 | 79 | 1007.9 |
| 20260502045054 | 91 | 135 | 7.0 | 9.0 | 0.00 | 0.00 | 0.00 | 79 | 1007.9 |
| 20260502044950 | 91 | 7 | 9.0 | 8.0 | 0.00 | 0.00 | 0.00 | 79 | 1007.9 |
| 20260502044852 | 91 | 343 | 8.0 | 8.0 | 0.00 | 0.00 | 0.00 | 80 | 1007.9 |
| 20260502044750 | 91 | 5 | 9.0 | 9.0 | 0.00 | 0.00 | 0.00 | 80 | 1007.9 |
| 20260502044654 | 91 | 25 | 9.0 | 9.0 | 0.00 | 0.00 | 0.00 | 79 | 1007.9 |
| 20260502044559 | 91 | 28 | 9.0 | 8.0 | 0.00 | 0.00 | 0.00 | 80 | 1007.9 |
| 20260502044452 | 91 | 168 | 8.0 | 9.0 | 0.00 | 0.00 | 0.00 | 80 | 1007.9 |
| 20260502044350 | 91 | 307 | 9.0 | 9.0 | 0.00 | 0.00 | 0.00 | 79 | 1007.9 |
| 20260502044250 | 91 | 2 | 9.0 | 8.0 | 0.00 | 0.00 | 0.00 | 79 | 1007.9 |
| 20260502044150 | 91 | 355 | 8.0 | 6.0 | 0.00 | 0.00 | 0.00 | 79 | 1007.9 |
| 20260502044050 | 91 | 354 | 6.0 | 0.0 | 0.00 | 0.00 | 0.00 | 80 | 1007.9 |
| 20260502043954 | 91 | 355 | 0.0 | 0.0 | 0.00 | 0.00 | 0.00 | 79 | 1008.0 |
| 20260502043806 | 91 | 355 | 6.0 | 6.0 | 0.00 | 0.00 | 0.00 | 78 | 1008.0 |
| 20260502043700 | 91 | 355 | 6.0 | 6.0 | 0.00 | 0.00 | 0.00 | 79 | 1008.0 |
| 20260502043600 | 91 | 12 | 8.0 | 7.0 | 0.00 | 0.00 | 0.00 | 80 | 1008.0 |
| 20260502043402 | 91 | 17 | 7.0 | 8.0 | 0.00 | 0.00 | 0.00 | 80 | 1008.0 |
| 20260502043304 | 91 | 355 | 8.0 | 9.0 | 0.00 | 0.00 | 0.00 | 79 | 1008.0 |
| 20260502043200 | 91 | 354 | 9.0 | 6.0 | 0.00 | 0.00 | 0.00 | 78 | 1008.1 |
| 20260502043106 | 91 | 355 | 6.0 | 9.0 | 0.00 | 0.00 | 0.00 | 77 | 1008.1 |
| 20260502043000 | 92 | 355 | 9.0 | 8.0 | 0.00 | 0.00 | 0.00 | 76 | 1008.1 |
| 20260502042900 | 92 | 0 | 8.0 | 8.0 | 0.00 | 0.00 | 0.00 | 76 | 1008.1 |
| 20260502042800 | 92 | 355 | 8.0 | 6.0 | 0.00 | 0.00 | 0.00 | 76 | 1008.1 |
| 20260502042700 | 92 | 355 | 6.0 | 6.0 | 0.00 | 0.00 | 0.00 | 77 | 1008.1 |
| 20260502042600 | 92 | 355 | 6.0 | 6.0 | 0.00 | 0.00 | 0.00 | 77 | 1008.1 |
| 20260502042500 | 92 | 355 | 6.0 | 9.0 | 0.00 | 0.00 | 0.00 | 76 | 1008.2 |
| 20260502042408 | 92 | 355 | 9.0 | 6.0 | 0.00 | 0.00 | 0.00 | 76 | 1008.2 |
| 20260502042300 | 92 | 355 | 6.0 | 6.0 | 0.00 | 0.00 | 0.00 | 76 | 1008.2 |
| 20260502042200 | 91 | 355 | 6.0 | 5.0 | 0.00 | 0.00 | 0.00 | 78 | 1008.2 |
| 20260502042100 | 91 | 355 | 5.0 | 6.0 | 0.00 | 0.00 | 0.00 | 77 | 1008.2 |
| 20260502042000 | 91 | 355 | 6.0 | 5.0 | 0.00 | 0.00 | 0.00 | 78 | 1008.3 |
| 20260502041902 | 91 | 335 | 5.0 | 7.0 | 0.00 | 0.00 | 0.00 | 78 | 1008.3 |
| 20260502041801 | 91 | 351 | 7.0 | 7.0 | 0.00 | 0.00 | 0.00 | 79 | 1008.3 |
| 20260502041700 | 91 | 34 | 7.0 | 5.0 | 0.00 | 0.00 | 0.00 | 78 | 1008.3 |
| 20260502041601 | 91 | 355 | 7.0 | 2.0 | 0.00 | 0.00 | 0.00 | 78 | 1008.3 |
| 20260502041500 | 91 | 306 | 2.0 | 5.0 | 0.00 | 0.00 | 0.00 | 79 | 1008.3 |
| 20260502041402 | 91 | 48 | 5.0 | 8.0 | 0.00 | 0.00 | 0.00 | 78 | 1008.4 |
| 20260502041302 | 91 | 6 | 8.0 | 5.0 | 0.00 | 0.00 | 0.00 | 77 | 1008.4 |
| 20260502041200 | 91 | 13 | 5.0 | 6.0 | 0.00 | 0.00 | 0.00 | 78 | 1008.4 |
| 20260502041103 | 91 | 15 | 6.0 | 7.0 | 0.00 | 0.00 | 0.00 | 78 | 1008.4 |
| 20260502041005 | 91 | 8 | 7.0 | 3.0 | 0.00 | 0.00 | 0.00 | 78 | 1008.4 |
| 20260502040859 | 91 | 355 | 3.0 | 3.0 | 0.00 | 0.00 | 0.00 | 79 | 1008.4 |
| 20260502040804 | 91 | 355 | 3.0 | 4.0 | 0.00 | 0.00 | 0.00 | 80 | 1008.4 |
| 20260502040702 | 90 | 345 | 4.0 | 1.0 | 0.00 | 0.00 | 0.00 | 80 | 1008.4 |
| 20260502040602 | 90 | 355 | 7.0 | 6.0 | 0.00 | 0.00 | 0.00 | 79 | 1008.4 |
| 20260502040500 | 90 | 350 | 6.0 | 5.0 | 0.00 | 0.00 | 0.00 | 79 | 1008.4 |
| 20260502040405 | 90 | 355 | 5.0 | 2.0 | 0.00 | 0.00 | 0.00 | 79 | 1008.4 |
| 20260502040300 | 91 | 7 | 2.0 | 6.0 | 0.00 | 0.00 | 0.00 | 79 | 1008.4 |
| 20260502040205 | 91 | 0 | 6.0 | 5.0 | 0.00 | 0.00 | 0.00 | 77 | 1008.5 |
| 20260502040105 | 91 | 0 | 5.0 | 6.0 | 0.00 | 0.00 | 0.00 | 77 | 1008.5 |
| 20260502040000 | 91 | 18 | 6.0 | 6.0 | 0.00 | 0.00 | 0.00 | 78 | 1008.5 |
| 20260502035901 | 92 | 43 | 6.0 | 5.0 | 0.00 | 0.00 | 0.00 | 76 | 1008.4 |
| 20260502035759 | 92 | 52 | 5.0 | 2.0 | 0.00 | 0.00 | 0.00 | 75 | 1008.4 |
| 20260502035701 | 92 | 52 | 2.0 | 2.0 | 0.00 | 0.00 | 0.00 | 71 | 1008.4 |
| 20260502035559 | 92 | 66 | 1.0 | 1.0 | 0.00 | 0.00 | 0.00 | 71 | 1008.4 |
| 20260502035459 | 92 | 14 | 1.0 | 1.0 | 0.00 | 0.00 | 0.00 | 72 | 1008.5 |
| 20260502035359 | 92 | 355 | 1.0 | 1.0 | 0.00 | 0.00 | 0.00 | 73 | 1008.5 |
| 20260502035259 | 91 | 355 | 1.0 | 0.0 | 0.00 | 0.00 | 0.00 | 74 | 1008.5 |
| 20260502035159 | 91 | 328 | 0.0 | 0.0 | 0.00 | 0.00 | 0.00 | 74 | 1008.5 |
| 20260502035106 | 91 | 333 | 0.0 | 0.0 | 0.00 | 0.00 | 0.00 | 75 | 1008.5 |
| 20260502034959 | 91 | 355 | 0.0 | 1.0 | 0.00 | 0.00 | 0.00 | 75 | 1008.5 |
| 20260502034905 | 90 | 355 | 1.0 | 0.0 | 0.00 | 0.00 | 0.00 | 74 | 1008.6 |
| 20260502034806 | 90 | 355 | 0.0 | 1.0 | 0.00 | 0.00 | 0.00 | 74 | 1008.6 |
| 20260502034659 | 90 | 355 | 1.0 | 4.0 | 0.00 | 0.00 | 0.00 | 74 | 1008.6 |
| 20260502034630 | 91 | 355 | 1.0 | 0.0 | 0.00 | 0.00 | 0.00 | 75 | 1008.6 |
| 20260502034359 | 91 | 355 | 0.0 | 1.0 | 0.00 | 0.00 | 0.00 | 73 | 1008.6 |
| 20260502034259 | 91 | 355 | 1.0 | 2.0 | 0.00 | 0.00 | 0.00 | 74 | 1008.6 |
| 20260502034236 | 91 | 355 | 2.0 | 4.0 | 0.00 | 0.00 | 0.00 | 73 | 1008.7 |
| 20260502034128 | 91 | 355 | 4.0 | 3.0 | 0.00 | 0.00 | 0.00 | 72 | 1008.7 |
| 20260502034027 | 92 | 41 | 3.0 | 4.0 | 0.00 | 0.00 | 0.00 | 72 | 1008.7 |
| 20260502033909 | 92 | 128 | 4.0 | 4.0 | 0.00 | 0.00 | 0.00 | 71 | 1008.7 |
| 20260502033815 | 92 | 137 | 4.0 | 4.0 | 0.00 | 0.00 | 0.00 | 72 | 1008.7 |
| 20260502033703 | 92 | 130 | 4.0 | 4.0 | 0.00 | 0.00 | 0.00 | 72 | 1008.7 |
| 20260502033559 | 92 | 91 | 3.0 | 2.0 | 0.00 | 0.00 | 0.00 | 74 | 1008.7 |
| 20260502033459 | 91 | 62 | 2.0 | 2.0 | 0.00 | 0.00 | 0.00 | 73 | 1008.8 |
| 20260502033359 | 91 | 25 | 2.0 | 4.0 | 0.00 | 0.00 | 0.00 | 73 | 1008.8 |
| 20260502033301 | 91 | 35 | 4.0 | 3.0 | 0.00 | 0.00 | 0.00 | 73 | 1008.8 |
| 20260502033159 | 91 | 51 | 3.0 | 5.0 | 0.00 | 0.00 | 0.00 | 73 | 1008.8 |
| 20260502033101 | 91 | 166 | 5.0 | 6.0 | 0.00 | 0.00 | 0.00 | 73 | 1008.8 |
| 20260502032959 | 91 | 149 | 6.0 | 4.0 | 0.00 | 0.00 | 0.00 | 72 | 1008.8 |
| 20260502032859 | 91 | 152 | 4.0 | 6.0 | 0.00 | 0.00 | 0.00 | 72 | 1008.8 |
| 20260502032806 | 91 | 80 | 6.0 | 4.0 | 0.00 | 0.00 | 0.00 | 73 | 1008.9 |
| 20260502032706 | 91 | 72 | 4.0 | 1.0 | 0.00 | 0.00 | 0.00 | 73 | 1008.9 |
| 20260502032601 | 91 | 68 | 6.0 | 5.0 | 0.00 | 0.00 | 0.00 | 73 | 1008.9 |
| 20260502032505 | 91 | 95 | 5.0 | 1.0 | 0.00 | 0.00 | 0.00 | 73 | 1008.9 |
| 20260502032359 | 91 | 81 | 1.0 | 3.0 | 0.00 | 0.00 | 0.00 | 75 | 1008.9 |
| 20260502032259 | 91 | 55 | 3.0 | 5.0 | 0.00 | 0.00 | 0.00 | 75 | 1008.9 |
| 20260502032205 | 91 | 76 | 5.0 | 6.0 | 0.00 | 0.00 | 0.00 | 76 | 1008.9 |
| 20260502032059 | 91 | 108 | 6.0 | 4.0 | 0.00 | 0.00 | 0.00 | 75 | 1008.9 |
| 20260502031959 | 91 | 131 | 4.0 | 3.0 | 0.00 | 0.00 | 0.00 | 75 | 1008.9 |
| 20260502031859 | 91 | 142 | 3.0 | 1.0 | 0.00 | 0.00 | 0.00 | 76 | 1008.9 |
| 20260502031759 | 91 | 135 | 1.0 | 1.0 | 0.00 | 0.00 | 0.00 | 76 | 1009.0 |
| 20260502031659 | 90 | 80 | 1.0 | 4.0 | 0.00 | 0.00 | 0.00 | 76 | 1009.0 |
| 20260502031601 | 90 | 86 | 1.0 | 0.0 | 0.00 | 0.00 | 0.00 | 77 | 1009.0 |
| 20260502031501 | 90 | 165 | 0.0 | 0.0 | 0.00 | 0.00 | 0.00 | 77 | 1009.0 |
| 20260502031359 | 90 | 230 | 0.0 | 1.0 | 0.00 | 0.00 | 0.00 | 77 | 1009.0 |
| 20260502031301 | 90 | 173 | 1.0 | 1.0 | 0.00 | 0.00 | 0.00 | 78 | 1009.0 |
| 20260502031201 | 90 | 184 | 1.0 | 0.0 | 0.00 | 0.00 | 0.00 | 78 | 1009.0 |
| 20260502031101 | 90 | 196 | 0.0 | 3.0 | 0.00 | 0.00 | 0.00 | 78 | 1009.0 |
| 20260502030959 | 90 | 150 | 3.0 | 2.0 | 0.00 | 0.00 | 0.00 | 78 | 1009.0 |
| 20260502030903 | 90 | 152 | 2.0 | 3.0 | 0.00 | 0.00 | 0.00 | 79 | 1009.0 |
| 20260502030759 | 89 | 151 | 3.0 | 4.0 | 0.00 | 0.00 | 0.00 | 78 | 1009.0 |
| 20260502030659 | 89 | 161 | 4.0 | 2.0 | 0.00 | 0.00 | 0.00 | 78 | 1009.0 |
| 20260502030559 | 89 | 171 | 5.0 | 6.0 | 0.00 | 0.00 | 0.00 | 77 | 1009.0 |
| 20260502030511 | 90 | 171 | 6.0 | 7.0 | 0.00 | 0.00 | 0.00 | 77 | 1009.1 |
| 20260502030421 | 90 | 171 | 7.0 | 5.0 | 0.00 | 0.00 | 0.00 | 77 | 1009.1 |
| 20260502030259 | 89 | 156 | 5.0 | 6.0 | 0.00 | 0.00 | 0.00 | 79 | 1009.1 |
| 20260502030209 | 89 | 140 | 6.0 | 3.0 | 0.00 | 0.00 | 0.00 | 77 | 1009.1 |
| 20260502030116 | 90 | 154 | 3.0 | 4.0 | 0.00 | 0.00 | 0.00 | 77 | 1009.1 |
| 20260502030013 | 90 | 145 | 4.0 | 2.0 | 0.00 | 0.00 | 0.00 | 77 | 1009.1 |
| 20260502025859 | 90 | 169 | 2.0 | 1.0 | 0.00 | 0.00 | 0.00 | 78 | 1009.1 |
| 20260502025759 | 90 | 176 | 1.0 | 4.0 | 0.00 | 0.00 | 0.00 | 78 | 1009.1 |
| 20260502025704 | 90 | 179 | 4.0 | 3.0 | 0.00 | 0.00 | 0.00 | 78 | 1009.1 |
| 20260502025559 | 90 | 163 | 6.0 | 3.0 | 0.00 | 0.00 | 0.00 | 77 | 1009.1 |
| 20260502025506 | 90 | 116 | 3.0 | 1.0 | 0.00 | 0.00 | 0.00 | 79 | 1009.1 |
| 20260502025404 | 89 | 198 | 1.0 | 2.0 | 0.00 | 0.00 | 0.00 | 79 | 1009.1 |
| 20260502025306 | 89 | 231 | 2.0 | 2.0 | 0.00 | 0.00 | 0.00 | 80 | 1009.1 |
| 20260502025159 | 89 | 183 | 2.0 | 2.0 | 0.00 | 0.00 | 0.00 | 79 | 1009.1 |
| 20260502025059 | 89 | 226 | 2.0 | 2.0 | 0.00 | 0.00 | 0.00 | 79 | 1009.1 |
| 20260502025006 | 89 | 205 | 2.0 | 3.0 | 0.00 | 0.00 | 0.00 | 79 | 1009.1 |
| 20260502024859 | 89 | 180 | 3.0 | 2.0 | 0.00 | 0.00 | 0.00 | 79 | 1009.1 |
| 20260502024806 | 89 | 197 | 2.0 | 3.0 | 0.00 | 0.00 | 0.00 | 80 | 1009.1 |
| 20260502024659 | 89 | 164 | 3.0 | 4.0 | 0.00 | 0.00 | 0.00 | 80 | 1009.1 |
| 20260502024609 | 89 | 178 | 2.0 | 3.0 | 0.00 | 0.00 | 0.00 | 80 | 1009.1 |
| 20260502024459 | 89 | 205 | 3.0 | 2.0 | 0.00 | 0.00 | 0.00 | 81 | 1009.1 |
| 20260502024359 | 89 | 127 | 2.0 | 2.0 | 0.00 | 0.00 | 0.00 | 81 | 1009.1 |
| 20260502024259 | 88 | 94 | 2.0 | 3.0 | 0.00 | 0.00 | 0.00 | 81 | 1009.1 |
| 20260502024209 | 88 | 132 | 3.0 | 4.0 | 0.00 | 0.00 | 0.00 | 80 | 1009.1 |
| 20260502024106 | 89 | 92 | 4.0 | 6.0 | 0.00 | 0.00 | 0.00 | 81 | 1009.1 |
| 20260502023959 | 89 | 109 | 6.0 | 2.0 | 0.00 | 0.00 | 0.00 | 81 | 1009.1 |
| 20260502023859 | 88 | 119 | 2.0 | 5.0 | 0.00 | 0.00 | 0.00 | 81 | 1009.1 |
| 20260502023759 | 89 | 117 | 5.0 | 5.0 | 0.00 | 0.00 | 0.00 | 80 | 1009.1 |
| 20260502023710 | 89 | 131 | 5.0 | 3.0 | 0.00 | 0.00 | 0.00 | 80 | 1009.2 |
| 20260502023559 | 89 | 146 | 5.0 | 4.0 | 0.00 | 0.00 | 0.00 | 81 | 1009.2 |
| 20260502023521 | 88 | 169 | 4.0 | 4.0 | 0.00 | 0.00 | 0.00 | 82 | 1009.2 |
| 20260502023424 | 88 | 198 | 4.0 | 4.0 | 0.00 | 0.00 | 0.00 | 80 | 1009.2 |
| 20260502023353 | 88 | 173 | 3.0 | 3.0 | 0.00 | 0.00 | 0.00 | 82 | 1009.2 |
| 20260502023139 | 88 | 181 | 3.0 | 4.0 | 0.00 | 0.00 | 0.00 | 81 | 1009.2 |
| 20260502023002 | 89 | 143 | 4.0 | 4.0 | 0.00 | 0.00 | 0.00 | 81 | 1009.2 |
| 20260502022859 | 89 | 146 | 4.0 | 4.0 | 0.00 | 0.00 | 0.00 | 81 | 1009.2 |
| 20260502022803 | 88 | 141 | 4.0 | 4.0 | 0.00 | 0.00 | 0.00 | 82 | 1009.2 |
| 20260502022700 | 88 | 110 | 4.0 | 3.0 | 0.00 | 0.00 | 0.00 | 82 | 1009.2 |
| 20260502022559 | 88 | 125 | 5.0 | 5.0 | 0.00 | 0.00 | 0.00 | 80 | 1009.2 |
| 20260502022459 | 88 | 129 | 5.0 | 2.0 | 0.00 | 0.00 | 0.00 | 80 | 1009.2 |
| 20260502022359 | 88 | 124 | 2.0 | 1.0 | 0.00 | 0.00 | 0.00 | 82 | 1009.2 |
| 20260502022300 | 88 | 124 | 1.0 | 5.0 | 0.00 | 0.00 | 0.00 | 82 | 1009.2 |
| 20260502022159 | 88 | 119 | 5.0 | 2.0 | 0.00 | 0.00 | 0.00 | 83 | 1009.2 |
| 20260502022100 | 88 | 108 | 2.0 | 2.0 | 0.00 | 0.00 | 0.00 | 83 | 1009.2 |
| 20260502021959 | 88 | 134 | 2.0 | 4.0 | 0.00 | 0.00 | 0.00 | 82 | 1009.2 |
| 20260502021859 | 88 | 149 | 4.0 | 1.0 | 0.00 | 0.00 | 0.00 | 82 | 1009.2 |
| 20260502021759 | 88 | 173 | 1.0 | 5.0 | 0.00 | 0.00 | 0.00 | 82 | 1009.2 |
| 20260502021701 | 88 | 182 | 5.0 | 4.0 | 0.00 | 0.00 | 0.00 | 81 | 1009.2 |
| 20260502021604 | 88 | 164 | 6.0 | 4.0 | 0.00 | 0.00 | 0.00 | 82 | 1009.2 |
| 20260502021459 | 88 | 159 | 4.0 | 2.0 | 0.00 | 0.00 | 0.00 | 82 | 1009.2 |
| 20260502021400 | 88 | 149 | 2.0 | 2.0 | 0.00 | 0.00 | 0.00 | 82 | 1009.2 |
| 20260502021301 | 88 | 132 | 2.0 | 2.0 | 0.00 | 0.00 | 0.00 | 82 | 1009.2 |
| 20260502021201 | 88 | 131 | 2.0 | 3.0 | 0.00 | 0.00 | 0.00 | 81 | 1009.2 |
| 20260502021101 | 88 | 148 | 3.0 | 4.0 | 0.00 | 0.00 | 0.00 | 81 | 1009.2 |
| 20260502020959 | 88 | 155 | 4.0 | 5.0 | 0.00 | 0.00 | 0.00 | 82 | 1009.3 |
| 20260502020903 | 88 | 149 | 5.0 | 4.0 | 0.00 | 0.00 | 0.00 | 82 | 1009.3 |
| 20260502020631 | 88 | 162 | 5.0 | 4.0 | 0.00 | 0.00 | 0.00 | 83 | 1009.2 |
| 20260502020104 | 88 | 138 | 4.0 | 4.0 | 0.00 | 0.00 | 0.00 | 84 | 1009.2 |
| 20260502020001 | 88 | 83 | 4.0 | 5.0 | 0.00 | 0.00 | 0.00 | 84 | 1009.2 |
| 20260502015812 | 87 | 133 | 2.0 | 4.0 | 0.00 | 0.00 | 0.00 | 84 | 1009.2 |
| 20260502015659 | 88 | 119 | 4.0 | 2.0 | 0.00 | 0.00 | 0.00 | 83 | 1009.2 |
| 20260502015559 | 88 | 137 | 2.0 | 2.0 | 0.00 | 0.00 | 0.00 | 86 | 1009.2 |
| 20260502015518 | 88 | 120 | 2.0 | 2.0 | 0.00 | 0.00 | 0.00 | 86 | 1009.1 |
| 20260502015059 | 87 | 119 | 2.0 | 1.0 | 0.00 | 0.00 | 0.00 | 87 | 1009.1 |
| 20260502015050 | 87 | 121 | 1.0 | 0.0 | 0.00 | 0.00 | 0.00 | 87 | 1009.1 |
| 20260502014957 | 86 | 306 | 1.0 | 3.0 | 0.00 | 0.00 | 0.00 | 90 | 1009.1 |
| 20260502014327 | 85 | 262 | 3.0 | 1.0 | 0.00 | 0.00 | 0.00 | 91 | 1009.1 |
| 20260502013921 | 85 | 220 | 1.0 | 2.0 | 0.00 | 0.00 | 0.00 | 92 | 1009.1 |
| 20260502013617 | 85 | 239 | 1.0 | 3.0 | 0.00 | 0.00 | 0.00 | 92 | 1009.1 |
| 20260502013533 | 85 | 221 | 3.0 | 3.0 | 0.00 | 0.00 | 0.00 | 91 | 1009.1 |
| 20260502013358 | 85 | 226 | 3.0 | 1.0 | 0.00 | 0.00 | 0.00 | 92 | 1009.1 |
| 20260502013315 | 85 | 226 | 1.0 | 1.0 | 0.00 | 0.00 | 0.00 | 92 | 1009.1 |
| 20260502013158 | 85 | 170 | 1.0 | 2.0 | 0.00 | 0.00 | 0.00 | 92 | 1009.1 |
| 20260502013135 | 85 | 168 | 2.0 | 1.0 | 0.00 | 0.00 | 0.00 | 92 | 1009.1 |
| 20260502012723 | 84 | 160 | 2.0 | 2.0 | 0.00 | 0.00 | 0.00 | 93 | 1009.2 |
| 20260502012644 | 84 | 178 | 1.0 | 2.0 | 0.00 | 0.00 | 0.00 | 93 | 1009.2 |
| 20260502012331 | 84 | 188 | 3.0 | 1.0 | 0.00 | 0.00 | 0.00 | 93 | 1009.2 |
| 20260502012259 | 84 | 206 | 1.0 | 1.0 | 0.00 | 0.00 | 0.00 | 94 | 1009.2 |
| 20260502012102 | 84 | 190 | 1.0 | 1.0 | 0.00 | 0.00 | 0.00 | 94 | 1009.2 |
| 20260502012001 | 84 | 195 | 1.0 | 2.0 | 0.00 | 0.00 | 0.00 | 94 | 1009.2 |
| 20260502011936 | 84 | 147 | 2.0 | 0.0 | 0.00 | 0.00 | 0.00 | 94 | 1009.2 |
| 20260502011758 | 84 | 139 | 0.0 | 0.0 | 0.00 | 0.00 | 0.00 | 94 | 1009.2 |
| 20260502010801 | 82 | 198 | 1.0 | 0.0 | 0.00 | 0.00 | 0.00 | 97 | 1009.1 |
| 20260502010250 | 82 | 224 | 2.0 | 1.0 | 0.00 | 0.00 | 0.00 | 99 | 1009.0 |
| 20260502005843 | 82 | 194 | 0.0 | 0.0 | 0.00 | 0.00 | 0.00 | 99 | 1008.9 |
| 20260502005419 | 81 | 213 | 0.0 | 0.0 | 0.00 | 0.00 | 0.00 | 99 | 1008.9 |
| 20260502005143 | 81 | 213 | 0.0 | 0.0 | 0.00 | 0.00 | 0.00 | 99 | 1008.9 |
| 20260502004714 | 81 | 231 | 0.0 | 0.0 | 0.00 | 0.00 | 0.00 | 99 | 1008.8 |
| 20260502004343 | 80 | 239 | 0.0 | 1.0 | 0.00 | 0.00 | 0.00 | 99 | 1008.8 |
| 20260502004141 | 80 | 230 | 0.0 | 0.0 | 0.00 | 0.00 | 0.00 | 99 | 1008.8 |
| 20260502003953 | 80 | 230 | 0.0 | 0.0 | 0.00 | 0.00 | 0.00 | 99 | 1008.8 |
| 20260502003552 | 80 | 230 | 0.0 | 2.0 | 0.00 | 0.00 | 0.00 | 99 | 1008.8 |
| 20260502003510 | 80 | 230 | 2.0 | 1.0 | 0.00 | 0.00 | 0.00 | 99 | 1008.7 |
| 20260502003355 | 80 | 232 | 1.0 | 0.0 | 0.00 | 0.00 | 0.00 | 99 | 1008.7 |
| 20260502003310 | 80 | 241 | 1.0 | 1.0 | 0.00 | 0.00 | 0.00 | 99 | 1008.7 |
| 20260502003152 | 80 | 236 | 1.0 | 1.0 | 0.00 | 0.00 | 0.00 | 99 | 1008.7 |
| 20260502003057 | 79 | 232 | 1.0 | 2.0 | 0.00 | 0.00 | 0.00 | 99 | 1008.7 |
| 20260502002946 | 79 | 256 | 2.0 | 0.0 | 0.00 | 0.00 | 0.00 | 99 | 1008.7 |
| 20260502002840 | 79 | 256 | 0.0 | 0.0 | 0.00 | 0.00 | 0.00 | 99 | 1008.7 |
| 20260502002744 | 79 | 241 | 0.0 | 0.0 | 0.00 | 0.00 | 0.00 | 99 | 1008.7 |
| 20260502002642 | 79 | 234 | 0.0 | 0.0 | 0.00 | 0.00 | 0.00 | 99 | 1008.7 |
| 20260502002548 | 79 | 208 | 0.0 | 0.0 | 0.00 | 0.00 | 0.00 | 99 | 1008.7 |
| 20260502002534 | 79 | 207 | 0.0 | 0.0 | 0.00 | 0.00 | 0.00 | 99 | 1008.7 |
| 20260502002340 | 79 | 207 | 0.0 | 0.0 | 0.00 | 0.00 | 0.00 | 99 | 1008.7 |
| 20260502002240 | 79 | 199 | 0.0 | 0.0 | 0.00 | 0.00 | 0.00 | 99 | 1008.7 |
| 20260502002152 | 79 | 199 | 0.0 | 0.0 | 0.00 | 0.00 | 0.00 | 99 | 1008.7 |
| 20260502000900 | 79 | 194 | 0.0 | 0.0 | 0.00 | 0.00 | 0.00 | 99 | 1008.6 |
| 20260502000554 | 78 | 216 | 0.0 | 0.0 | 0.00 | 0.00 | 0.00 | 99 | 1008.6 |
| 20260502000440 | 78 | 232 | 0.0 | 0.0 | 0.00 | 0.00 | 0.00 | 99 | 1008.6 |
| 20260502000426 | 78 | 241 | 0.0 | 0.0 | 0.00 | 0.00 | 0.00 | 99 | 1008.5 |
| 20260501235740 | 78 | 241 | 0.0 | 1.0 | 0.00 | 0.00 | 0.00 | 99 | 1008.5 |
| 20260501235718 | 78 | 240 | 0.0 | 0.0 | 0.00 | 0.00 | 0.00 | 99 | 1008.4 |
| 20260501235146 | 78 | 180 | 0.0 | 0.0 | 0.00 | 0.00 | 0.00 | 99 | 1008.4 |
| 20260501234939 | 78 | 180 | 0.0 | 0.0 | 0.00 | 0.00 | 0.00 | 99 | 1008.4 |
| 20260501234849 | 78 | 180 | 0.0 | 0.0 | 0.00 | 0.00 | 0.00 | 99 | 1008.4 |
| 20260501234741 | 78 | 180 | 0.0 | 0.0 | 0.00 | 0.00 | 0.00 | 99 | 1008.4 |
| 20260501234449 | 78 | 180 | 0.0 | 0.0 | 0.00 | 0.00 | 0.00 | 99 | 1008.3 |
| 20260501234353 | 77 | 180 | 0.0 | 0.0 | 0.00 | 0.00 | 0.00 | 99 | 1008.3 |
| 20260501234253 | 77 | 180 | 0.0 | 0.0 | 0.00 | 0.00 | 0.00 | 99 | 1008.3 |
| 20260501234157 | 77 | 180 | 0.0 | 0.0 | 0.00 | 0.00 | 0.00 | 99 | 1008.3 |
| 20260501234041 | 77 | 180 | 0.0 | 0.0 | 0.00 | 0.00 | 0.00 | 99 | 1008.3 |
| 20260501233949 | 77 | 180 | 0.0 | 0.0 | 0.00 | 0.00 | 0.00 | 99 | 1008.3 |
| 20260501233841 | 77 | 180 | 0.0 | 0.0 | 0.00 | 0.00 | 0.00 | 99 | 1008.3 |
| 20260501233739 | 77 | 180 | 0.0 | 0.0 | 0.00 | 0.00 | 0.00 | 99 | 1008.3 |
| 20260501233639 | 77 | 180 | 0.0 | 0.0 | 0.00 | 0.00 | 0.00 | 99 | 1008.2 |
| 20260501233545 | 77 | 180 | 0.0 | 0.0 | 0.00 | 0.00 | 0.00 | 99 | 1008.2 |